Time,TemperatureF,DewpointF,PressureIn,WindDirection,WindDirectionDegrees,WindSpeedMPH,WindSpeedGustMPH,Humidity,HourlyPrecipIn,Conditions,Clouds,dailyrainin,SoftwareType,DateUTC
2013-03-08 00:02:00,46.7,43.0,29.89,West,273,0.0,1.0,87,0.00,,,0.01,Wunderground v.1.15,2013-03-08 08:02:00,
2013-03-08 00:03:00,46.6,42.9,29.89,West,274,0.0,1.0,87,0.00,,,0.01,Wunderground v.1.15,2013-03-08 08:03:00,
2013-03-08 00:09:00,46.4,42.7,29.88,West,273,2.0,2.0,87,0.00,,,0.01,Wunderground v.1.15,2013-03-08 08:09:00,
2013-03-08 00:10:00,46.4,42.7,29.88,West,273,2.0,2.0,87,0.00,,,0.01,Wunderground v.1.15,2013-03-08 08:10:00,
2013-03-08 00:12:00,46.3,42.6,29.89,West,273,1.0,2.0,87,0.00,,,0.01,Wunderground v.1.15,2013-03-08 08:12:00,
2013-03-08 00:15:00,46.3,42.6,29.89,West,273,3.0,3.0,87,0.00,,,0.01,Wunderground v.1.15,2013-03-08 08:15:00,
2013-03-08 00:21:00,46.3,42.6,29.89,West,273,2.0,4.0,87,0.00,,,0.01,Wunderground v.1.15,2013-03-08 08:21:00,
2013-03-08 00:25:00,46.4,42.4,29.88,West,273,1.0,4.0,86,0.00,,,0.01,Wunderground v.1.15,2013-03-08 08:25:00,
2013-03-08 00:26:00,46.3,42.3,29.89,West,273,2.0,4.0,86,0.00,,,0.01,Wunderground v.1.15,2013-03-08 08:26:00,
2013-03-08 00:27:00,46.3,42.0,29.88,West,273,1.0,4.0,85,0.00,,,0.01,Wunderground v.1.15,2013-03-08 08:27:00,
2013-03-08 00:32:00,46.2,41.9,29.89,West,273,0.0,1.0,85,0.00,,,0.01,Wunderground v.1.15,2013-03-08 08:32:00,
2013-03-08 00:33:00,46.1,41.8,29.89,West,273,0.0,1.0,85,0.00,,,0.01,Wunderground v.1.15,2013-03-08 08:33:00,
2013-03-08 00:35:00,46.1,41.8,29.88,West,273,0.0,1.0,85,0.00,,,0.01,Wunderground v.1.15,2013-03-08 08:35:00,
2013-03-08 00:39:00,46.0,41.4,29.88,West,273,1.0,1.0,84,0.00,,,0.01,Wunderground v.1.15,2013-03-08 08:39:00,
2013-03-08 00:41:00,45.9,41.3,29.88,West,273,1.0,1.0,84,0.00,,,0.00,Wunderground v.1.15,2013-03-08 08:41:00,
2013-03-08 00:42:00,45.9,41.3,29.88,West,273,0.0,1.0,84,0.00,,,0.00,Wunderground v.1.15,2013-03-08 08:42:00,
2013-03-08 00:46:00,45.7,41.1,29.88,West,273,0.0,1.0,84,0.00,,,0.00,Wunderground v.1.15,2013-03-08 08:46:00,
2013-03-08 00:47:00,45.7,41.1,29.88,West,273,0.0,1.0,84,0.00,,,0.00,Wunderground v.1.15,2013-03-08 08:47:00,
2013-03-08 00:51:00,45.5,41.3,29.88,West,273,0.0,0.0,85,0.00,,,0.00,Wunderground v.1.15,2013-03-08 08:51:00,
2013-03-08 00:54:00,45.4,41.2,29.88,West,274,0.0,1.0,85,0.00,,,0.00,Wunderground v.1.15,2013-03-08 08:54:00,
2013-03-08 00:55:00,45.3,41.1,29.88,West,273,0.0,1.0,85,0.00,,,0.00,Wunderground v.1.15,2013-03-08 08:55:00,
2013-03-08 00:59:00,45.2,41.0,29.88,West,274,0.0,1.0,85,0.00,,,0.00,Wunderground v.1.15,2013-03-08 08:59:00,
2013-03-08 01:00:00,45.2,41.0,29.88,West,273,0.0,0.0,85,0.00,,,0.00,Wunderground v.1.15,2013-03-08 09:00:00,
2013-03-08 01:05:00,45.1,41.2,29.88,West,273,0.0,0.0,86,0.00,,,0.00,Wunderground v.1.15,2013-03-08 09:05:00,
2013-03-08 01:06:00,45.1,41.2,29.88,West,273,0.0,0.0,86,0.00,,,0.00,Wunderground v.1.15,2013-03-08 09:06:00,
2013-03-08 01:11:00,45.0,41.1,29.88,West,273,0.0,0.0,86,0.00,,,0.00,Wunderground v.1.15,2013-03-08 09:11:00,
2013-03-08 01:12:00,45.0,41.1,29.88,West,273,0.0,0.0,86,0.00,,,0.00,Wunderground v.1.15,2013-03-08 09:12:00,
2013-03-08 01:14:00,45.0,41.1,29.88,West,273,0.0,0.0,86,0.00,,,0.00,Wunderground v.1.15,2013-03-08 09:14:00,
2013-03-08 01:17:00,44.9,41.0,29.88,West,273,0.0,0.0,86,0.00,,,0.00,Wunderground v.1.15,2013-03-08 09:17:00,
2013-03-08 01:18:00,44.9,41.0,29.88,West,273,0.0,0.0,86,0.00,,,0.00,Wunderground v.1.15,2013-03-08 09:18:00,
2013-03-08 01:21:00,44.9,41.0,29.88,West,274,0.0,0.0,86,0.00,,,0.00,Wunderground v.1.15,2013-03-08 09:21:00,
2013-03-08 01:23:00,44.8,40.6,29.88,West,273,1.0,3.0,85,0.00,,,0.00,Wunderground v.1.15,2013-03-08 09:23:00,
2013-03-08 01:25:00,44.7,40.5,29.88,West,274,0.0,3.0,85,0.00,,,0.00,Wunderground v.1.15,2013-03-08 09:25:00,
2013-03-08 01:26:00,44.7,40.2,29.88,West,273,0.0,3.0,84,0.00,,,0.00,Wunderground v.1.15,2013-03-08 09:26:00,
2013-03-08 01:30:00,44.6,40.1,29.88,West,273,0.0,1.0,84,0.00,,,0.00,Wunderground v.1.15,2013-03-08 09:30:00,
2013-03-08 01:32:00,44.6,40.1,29.88,West,273,0.0,1.0,84,0.00,,,0.00,Wunderground v.1.15,2013-03-08 09:32:00,
2013-03-08 01:35:00,44.6,39.8,29.88,West,273,0.0,1.0,83,0.00,,,0.00,Wunderground v.1.15,2013-03-08 09:35:00,
2013-03-08 01:38:00,44.6,39.8,29.88,West,273,0.0,1.0,83,0.00,,,0.00,Wunderground v.1.15,2013-03-08 09:38:00,
2013-03-08 01:40:00,44.6,40.1,29.88,West,273,0.0,0.0,84,0.00,,,0.00,Wunderground v.1.15,2013-03-08 09:40:00,
2013-03-08 01:42:00,44.7,40.2,29.88,West,273,0.0,1.0,84,0.00,,,0.00,Wunderground v.1.15,2013-03-08 09:42:00,
2013-03-08 01:45:00,44.7,40.5,29.88,West,273,0.0,1.0,85,0.00,,,0.00,Wunderground v.1.15,2013-03-08 09:45:00,
2013-03-08 01:48:00,44.7,40.5,29.88,West,274,0.0,1.0,85,0.00,,,0.00,Wunderground v.1.15,2013-03-08 09:48:00,
2013-03-08 01:49:00,44.7,40.8,29.88,West,273,0.0,1.0,86,0.00,,,0.00,Wunderground v.1.15,2013-03-08 09:49:00,
2013-03-08 01:50:00,44.8,40.9,29.88,West,273,0.0,0.0,86,0.00,,,0.00,Wunderground v.1.15,2013-03-08 09:50:00,
2013-03-08 01:54:00,44.9,41.0,29.88,West,273,1.0,2.0,86,0.00,,,0.00,Wunderground v.1.15,2013-03-08 09:54:00,
2013-03-08 01:55:00,44.9,41.0,29.88,West,273,2.0,2.0,86,0.00,,,0.00,Wunderground v.1.15,2013-03-08 09:55:00,
2013-03-08 01:56:00,44.9,41.3,29.88,West,273,0.0,2.0,87,0.00,,,0.00,Wunderground v.1.15,2013-03-08 09:56:00,
2013-03-08 02:01:00,44.9,41.3,29.88,West,273,0.0,1.0,87,0.00,,,0.00,Wunderground v.1.15,2013-03-08 10:01:00,
2013-03-08 02:06:00,44.8,40.9,29.88,West,273,0.0,1.0,86,0.00,,,0.00,Wunderground v.1.15,2013-03-08 10:06:00,
2013-03-08 02:07:00,44.7,40.8,29.88,West,273,0.0,1.0,86,0.00,,,0.00,Wunderground v.1.15,2013-03-08 10:07:00,
2013-03-08 02:11:00,44.6,40.7,29.88,West,273,1.0,2.0,86,0.00,,,0.00,Wunderground v.1.15,2013-03-08 10:11:00,
2013-03-08 02:12:00,44.6,40.7,29.88,West,273,0.0,2.0,86,0.00,,,0.00,Wunderground v.1.15,2013-03-08 10:12:00,
2013-03-08 02:16:00,44.5,40.3,29.88,West,273,0.0,2.0,85,0.00,,,0.00,Wunderground v.1.15,2013-03-08 10:16:00,
2013-03-08 02:17:00,44.5,40.6,29.88,West,273,0.0,2.0,86,0.00,,,0.00,Wunderground v.1.15,2013-03-08 10:17:00,
2013-03-08 02:21:00,44.4,40.2,29.88,West,273,0.0,2.0,85,0.00,,,0.00,Wunderground v.1.15,2013-03-08 10:21:00,
2013-03-08 02:22:00,44.4,40.2,29.88,West,273,0.0,2.0,85,0.00,,,0.00,Wunderground v.1.15,2013-03-08 10:22:00,
2013-03-08 02:27:00,44.2,40.0,29.88,West,273,0.0,2.0,85,0.00,,,0.00,Wunderground v.1.15,2013-03-08 10:27:00,
2013-03-08 02:32:00,44.0,39.8,29.88,West,273,0.0,1.0,85,0.00,,,0.00,Wunderground v.1.15,2013-03-08 10:32:00,
2013-03-08 02:33:00,44.0,39.8,29.88,West,273,0.0,1.0,85,0.00,,,0.00,Wunderground v.1.15,2013-03-08 10:33:00,
2013-03-08 02:37:00,43.9,39.7,29.87,West,273,0.0,4.0,85,0.00,,,0.00,Wunderground v.1.15,2013-03-08 10:37:00,
2013-03-08 02:38:00,43.9,39.7,29.87,West,273,1.0,4.0,85,0.00,,,0.00,Wunderground v.1.15,2013-03-08 10:38:00,
2013-03-08 02:42:00,43.8,39.9,29.87,West,273,0.0,3.0,86,0.00,,,0.00,Wunderground v.1.15,2013-03-08 10:42:00,
2013-03-08 02:43:00,43.8,39.9,29.87,West,273,0.0,3.0,86,0.00,,,0.00,Wunderground v.1.15,2013-03-08 10:43:00,
2013-03-08 02:47:00,43.7,39.8,29.87,West,274,0.0,3.0,86,0.00,,,0.00,Wunderground v.1.15,2013-03-08 10:47:00,
2013-03-08 02:48:00,43.6,39.7,29.87,West,273,0.0,3.0,86,0.00,,,0.00,Wunderground v.1.15,2013-03-08 10:48:00,
2013-03-08 02:52:00,43.5,39.6,29.87,West,273,0.0,0.0,86,0.00,,,0.00,Wunderground v.1.15,2013-03-08 10:52:00,
2013-03-08 02:53:00,43.5,39.6,29.87,West,273,0.0,0.0,86,0.00,,,0.00,Wunderground v.1.15,2013-03-08 10:53:00,
2013-03-08 02:58:00,43.3,39.4,29.87,West,273,0.0,0.0,86,0.00,,,0.00,Wunderground v.1.15,2013-03-08 10:58:00,
2013-03-08 02:59:00,43.3,39.4,29.87,West,274,0.0,0.0,86,0.00,,,0.00,Wunderground v.1.15,2013-03-08 10:59:00,
2013-03-08 03:03:00,43.2,39.3,29.87,West,273,1.0,1.0,86,0.00,,,0.00,Wunderground v.1.15,2013-03-08 11:03:00,
2013-03-08 03:04:00,43.1,39.2,29.87,West,273,0.0,3.0,86,0.00,,,0.00,Wunderground v.1.15,2013-03-08 11:04:00,
2013-03-08 03:08:00,43.0,39.1,29.87,West,274,3.0,4.0,86,0.00,,,0.00,Wunderground v.1.15,2013-03-08 11:08:00,
2013-03-08 03:09:00,43.0,39.1,29.87,West,273,3.0,4.0,86,0.00,,,0.00,Wunderground v.1.15,2013-03-08 11:09:00,
2013-03-08 03:13:00,43.0,39.1,29.86,West,273,0.0,3.0,86,0.00,,,0.00,Wunderground v.1.15,2013-03-08 11:13:00,
2013-03-08 03:15:00,42.9,39.0,29.87,West,273,0.0,3.0,86,0.00,,,0.00,Wunderground v.1.15,2013-03-08 11:15:00,
2013-03-08 03:18:00,42.8,38.9,29.86,West,273,0.0,3.0,86,0.00,,,0.00,Wunderground v.1.15,2013-03-08 11:18:00,
2013-03-08 03:19:00,42.8,38.9,29.87,West,273,1.0,3.0,86,0.00,,,0.00,Wunderground v.1.15,2013-03-08 11:19:00,
2013-03-08 03:20:00,42.7,38.8,29.87,West,273,0.0,1.0,86,0.00,,,0.00,Wunderground v.1.15,2013-03-08 11:20:00,
2013-03-08 03:23:00,42.5,38.6,29.87,West,273,0.0,1.0,86,0.00,,,0.00,Wunderground v.1.15,2013-03-08 11:23:00,
2013-03-08 03:24:00,42.5,38.6,29.87,West,273,0.0,1.0,86,0.00,,,0.00,Wunderground v.1.15,2013-03-08 11:24:00,
2013-03-08 03:25:00,42.5,38.6,29.87,West,273,0.0,1.0,86,0.00,,,0.00,Wunderground v.1.15,2013-03-08 11:25:00,
2013-03-08 03:28:00,42.4,38.5,29.86,West,273,0.0,1.0,86,0.00,,,0.00,Wunderground v.1.15,2013-03-08 11:28:00,
2013-03-08 03:29:00,42.3,38.4,29.86,West,273,0.0,1.0,86,0.00,,,0.00,Wunderground v.1.15,2013-03-08 11:29:00,
2013-03-08 03:30:00,42.3,38.4,29.86,West,273,0.0,0.0,86,0.00,,,0.00,Wunderground v.1.15,2013-03-08 11:30:00,
2013-03-08 03:34:00,42.2,38.3,29.86,West,274,0.0,0.0,86,0.00,,,0.00,Wunderground v.1.15,2013-03-08 11:34:00,
2013-03-08 03:35:00,42.2,38.6,29.86,West,273,0.0,0.0,87,0.00,,,0.00,Wunderground v.1.15,2013-03-08 11:35:00,
2013-03-08 03:39:00,42.2,38.6,29.86,West,273,0.0,1.0,87,0.00,,,0.00,Wunderground v.1.15,2013-03-08 11:39:00,
2013-03-08 03:40:00,42.2,38.6,29.86,West,273,0.0,0.0,87,0.00,,,0.00,Wunderground v.1.15,2013-03-08 11:40:00,
2013-03-08 03:44:00,42.2,38.6,29.86,West,273,1.0,1.0,87,0.00,,,0.00,Wunderground v.1.15,2013-03-08 11:44:00,
2013-03-08 03:45:00,42.2,38.6,29.86,West,273,2.0,2.0,87,0.00,,,0.00,Wunderground v.1.15,2013-03-08 11:45:00,
2013-03-08 03:49:00,42.1,38.5,29.86,West,273,3.0,3.0,87,0.00,,,0.00,Wunderground v.1.15,2013-03-08 11:49:00,
2013-03-08 03:50:00,42.0,38.4,29.86,West,273,2.0,2.0,87,0.00,,,0.00,Wunderground v.1.15,2013-03-08 11:50:00,
2013-03-08 03:54:00,41.9,38.3,29.86,West,273,0.0,3.0,87,0.00,,,0.00,Wunderground v.1.15,2013-03-08 11:54:00,
2013-03-08 03:55:00,41.9,38.3,29.86,West,273,1.0,3.0,87,0.00,,,0.00,Wunderground v.1.15,2013-03-08 11:55:00,
2013-03-08 03:59:00,41.6,38.0,29.87,West,273,0.0,3.0,87,0.00,,,0.00,Wunderground v.1.15,2013-03-08 11:59:00,
2013-03-08 04:00:00,41.5,37.9,29.87,West,273,0.0,1.0,87,0.00,,,0.00,Wunderground v.1.15,2013-03-08 12:00:00,
2013-03-08 04:04:00,41.1,37.5,29.87,West,273,0.0,1.0,87,0.00,,,0.00,Wunderground v.1.15,2013-03-08 12:04:00,
2013-03-08 04:05:00,41.0,37.4,29.87,West,273,0.0,1.0,87,0.00,,,0.00,Wunderground v.1.15,2013-03-08 12:05:00,
2013-03-08 04:09:00,40.8,37.2,29.87,West,273,0.0,1.0,87,0.00,,,0.00,Wunderground v.1.15,2013-03-08 12:09:00,
2013-03-08 04:10:00,40.8,37.2,29.87,West,274,0.0,0.0,87,0.00,,,0.00,Wunderground v.1.15,2013-03-08 12:10:00,
2013-03-08 04:15:00,40.6,37.3,29.87,West,273,0.0,0.0,88,0.00,,,0.00,Wunderground v.1.15,2013-03-08 12:15:00,
2013-03-08 04:16:00,40.6,37.3,29.87,West,273,0.0,0.0,88,0.00,,,0.00,Wunderground v.1.15,2013-03-08 12:16:00,
2013-03-08 04:20:00,40.5,37.5,29.87,West,273,0.0,0.0,89,0.00,,,0.00,Wunderground v.1.15,2013-03-08 12:20:00,
2013-03-08 04:21:00,40.5,37.5,29.87,West,273,1.0,1.0,89,0.00,,,0.00,Wunderground v.1.15,2013-03-08 12:21:00,
2013-03-08 04:25:00,40.9,38.2,29.87,West,273,2.0,3.0,90,0.00,,,0.00,Wunderground v.1.15,2013-03-08 12:25:00,
2013-03-08 04:26:00,41.0,38.3,29.87,West,273,0.0,3.0,90,0.00,,,0.00,Wunderground v.1.15,2013-03-08 12:26:00,
2013-03-08 04:30:00,41.2,38.2,29.87,West,274,0.0,1.0,89,0.00,,,0.00,Wunderground v.1.15,2013-03-08 12:30:00,
2013-03-08 04:31:00,41.1,38.1,29.87,West,273,2.0,3.0,89,0.00,,,0.00,Wunderground v.1.15,2013-03-08 12:31:00,
2013-03-08 04:35:00,40.4,36.8,29.87,West,273,1.0,3.0,87,0.00,,,0.00,Wunderground v.1.15,2013-03-08 12:35:00,
2013-03-08 04:36:00,40.2,36.6,29.87,West,273,0.0,3.0,87,0.00,,,0.00,Wunderground v.1.15,2013-03-08 12:36:00,
2013-03-08 04:40:00,40.0,36.7,29.87,West,273,1.0,3.0,88,0.00,,,0.00,Wunderground v.1.15,2013-03-08 12:40:00,
2013-03-08 04:41:00,40.0,37.0,29.87,West,273,3.0,3.0,89,0.00,,,0.00,Wunderground v.1.15,2013-03-08 12:41:00,
2013-03-08 04:45:00,39.7,36.7,29.87,West,273,2.0,3.0,89,0.00,,,0.00,Wunderground v.1.15,2013-03-08 12:45:00,
2013-03-08 04:46:00,39.6,36.6,29.87,West,273,1.0,3.0,89,0.00,,,0.00,Wunderground v.1.15,2013-03-08 12:46:00,
2013-03-08 04:47:00,39.6,36.6,29.87,West,273,2.0,3.0,89,0.00,,,0.00,Wunderground v.1.15,2013-03-08 12:47:00,
2013-03-08 04:50:00,39.3,36.3,29.87,West,273,0.0,1.0,89,0.00,,,0.00,Wunderground v.1.15,2013-03-08 12:50:00,
2013-03-08 04:51:00,39.2,36.2,29.87,West,274,2.0,2.0,89,0.00,,,0.00,Wunderground v.1.15,2013-03-08 12:51:00,
2013-03-08 04:52:00,39.2,36.2,29.87,West,273,3.0,3.0,89,0.00,,,0.00,Wunderground v.1.15,2013-03-08 12:52:00,
2013-03-08 04:55:00,39.1,36.4,29.87,West,273,2.0,3.0,90,0.00,,,0.00,Wunderground v.1.15,2013-03-08 12:55:00,
2013-03-08 04:56:00,39.1,36.4,29.87,West,273,3.0,3.0,90,0.00,,,0.00,Wunderground v.1.15,2013-03-08 12:56:00,
2013-03-08 04:57:00,39.1,36.4,29.87,West,273,2.0,3.0,90,0.00,,,0.00,Wunderground v.1.15,2013-03-08 12:57:00,
2013-03-08 05:01:00,39.0,36.3,29.87,West,274,2.0,3.0,90,0.00,,,0.00,Wunderground v.1.15,2013-03-08 13:01:00,
2013-03-08 05:02:00,39.1,36.7,29.87,West,273,2.0,3.0,91,0.00,,,0.00,Wunderground v.1.15,2013-03-08 13:02:00,
2013-03-08 05:06:00,39.4,37.0,29.87,West,274,2.0,3.0,91,0.00,,,0.00,Wunderground v.1.15,2013-03-08 13:06:00,
2013-03-08 05:07:00,39.5,37.1,29.87,West,273,2.0,3.0,91,0.00,,,0.00,Wunderground v.1.15,2013-03-08 13:07:00,
2013-03-08 05:11:00,39.5,37.1,29.87,West,273,1.0,2.0,91,0.00,,,0.00,Wunderground v.1.15,2013-03-08 13:11:00,
2013-03-08 05:12:00,39.4,37.0,29.87,West,273,2.0,2.0,91,0.00,,,0.00,Wunderground v.1.15,2013-03-08 13:12:00,
2013-03-08 05:13:00,39.4,37.0,29.87,West,274,1.0,2.0,91,0.00,,,0.00,Wunderground v.1.15,2013-03-08 13:13:00,
2013-03-08 05:16:00,39.3,36.9,29.87,West,273,1.0,2.0,91,0.00,,,0.00,Wunderground v.1.15,2013-03-08 13:16:00,
2013-03-08 05:17:00,39.3,36.9,29.87,West,274,1.0,2.0,91,0.00,,,0.00,Wunderground v.1.15,2013-03-08 13:17:00,
2013-03-08 05:18:00,39.3,36.9,29.87,West,274,0.0,2.0,91,0.00,,,0.00,Wunderground v.1.15,2013-03-08 13:18:00,
2013-03-08 05:21:00,39.4,37.0,29.87,West,273,0.0,1.0,91,0.00,,,0.00,Wunderground v.1.15,2013-03-08 13:21:00,
2013-03-08 05:22:00,39.4,37.0,29.87,West,273,1.0,1.0,91,0.00,,,0.00,Wunderground v.1.15,2013-03-08 13:22:00,
2013-03-08 05:23:00,39.5,37.1,29.87,West,273,0.0,1.0,91,0.00,,,0.00,Wunderground v.1.15,2013-03-08 13:23:00,
2013-03-08 05:26:00,39.6,37.2,29.87,West,273,1.0,2.0,91,0.00,,,0.00,Wunderground v.1.15,2013-03-08 13:26:00,
2013-03-08 05:27:00,39.7,37.3,29.87,West,273,1.0,2.0,91,0.00,,,0.00,Wunderground v.1.15,2013-03-08 13:27:00,
2013-03-08 05:28:00,39.6,37.2,29.87,West,273,1.0,2.0,91,0.00,,,0.00,Wunderground v.1.15,2013-03-08 13:28:00,
2013-03-08 05:31:00,39.5,37.1,29.87,West,273,2.0,2.0,91,0.00,,,0.00,Wunderground v.1.15,2013-03-08 13:31:00,
2013-03-08 05:32:00,39.5,37.1,29.87,West,274,1.0,2.0,91,0.00,,,0.00,Wunderground v.1.15,2013-03-08 13:32:00,
2013-03-08 05:33:00,39.4,37.0,29.87,West,273,0.0,2.0,91,0.00,,,0.00,Wunderground v.1.15,2013-03-08 13:33:00,
2013-03-08 05:34:00,39.3,36.6,29.87,West,273,1.0,2.0,90,0.00,,,0.00,Wunderground v.1.15,2013-03-08 13:34:00,
2013-03-08 05:36:00,38.9,36.2,29.87,West,274,2.0,3.0,90,0.00,,,0.00,Wunderground v.1.15,2013-03-08 13:36:00,
2013-03-08 05:37:00,38.8,36.1,29.88,West,274,1.0,3.0,90,0.00,,,0.00,Wunderground v.1.15,2013-03-08 13:37:00,
2013-03-08 05:38:00,38.7,36.0,29.87,West,273,0.0,3.0,90,0.00,,,0.00,Wunderground v.1.15,2013-03-08 13:38:00,
2013-03-08 05:39:00,38.5,35.8,29.88,West,273,0.0,3.0,90,0.00,,,0.00,Wunderground v.1.15,2013-03-08 13:39:00,
2013-03-08 05:41:00,38.4,35.7,29.87,West,273,3.0,4.0,90,0.00,,,0.00,Wunderground v.1.15,2013-03-08 13:41:00,
2013-03-08 05:42:00,38.4,36.0,29.87,West,273,3.0,4.0,91,0.00,,,0.00,Wunderground v.1.15,2013-03-08 13:42:00,
2013-03-08 05:43:00,38.5,36.1,29.87,West,273,4.0,4.0,91,0.00,,,0.00,Wunderground v.1.15,2013-03-08 13:43:00,
2013-03-08 05:44:00,38.4,36.0,29.87,West,273,3.0,4.0,91,0.00,,,0.00,Wunderground v.1.15,2013-03-08 13:44:00,
2013-03-08 05:46:00,38.4,36.0,29.87,West,273,2.0,4.0,91,0.00,,,0.00,Wunderground v.1.15,2013-03-08 13:46:00,
2013-03-08 05:48:00,38.3,35.9,29.87,West,273,2.0,4.0,91,0.00,,,0.00,Wunderground v.1.15,2013-03-08 13:48:00,
2013-03-08 05:50:00,38.1,35.7,29.87,West,273,1.0,2.0,91,0.00,,,0.00,Wunderground v.1.15,2013-03-08 13:50:00,
2013-03-08 05:51:00,38.0,35.6,29.87,West,273,1.0,3.0,91,0.00,,,0.00,Wunderground v.1.15,2013-03-08 13:51:00,
2013-03-08 05:53:00,38.0,35.6,29.87,West,273,2.0,3.0,91,0.00,,,0.00,Wunderground v.1.15,2013-03-08 13:53:00,
2013-03-08 05:55:00,38.0,35.6,29.88,West,274,2.0,3.0,91,0.00,,,0.00,Wunderground v.1.15,2013-03-08 13:55:00,
2013-03-08 05:56:00,37.9,35.5,29.87,West,274,0.0,3.0,91,0.00,,,0.00,Wunderground v.1.15,2013-03-08 13:56:00,
2013-03-08 05:58:00,37.8,35.4,29.87,West,273,0.0,3.0,91,0.00,,,0.00,Wunderground v.1.15,2013-03-08 13:58:00,
2013-03-08 05:59:00,37.8,35.4,29.87,West,274,1.0,3.0,91,0.00,,,0.00,Wunderground v.1.15,2013-03-08 13:59:00,
2013-03-08 06:00:00,37.8,35.4,29.87,West,273,2.0,2.0,91,0.00,,,0.00,Wunderground v.1.15,2013-03-08 14:00:00,
2013-03-08 06:01:00,38.0,35.9,29.87,West,274,2.0,3.0,92,0.00,,,0.00,Wunderground v.1.15,2013-03-08 14:01:00,
2013-03-08 06:03:00,38.3,36.2,29.87,West,273,1.0,3.0,92,0.00,,,0.00,Wunderground v.1.15,2013-03-08 14:03:00,
2013-03-08 06:04:00,38.4,36.3,29.88,West,274,1.0,3.0,92,0.00,,,0.00,Wunderground v.1.15,2013-03-08 14:04:00,
2013-03-08 06:05:00,38.5,36.4,29.88,West,274,1.0,3.0,92,0.00,,,0.00,Wunderground v.1.15,2013-03-08 14:05:00,
2013-03-08 06:06:00,38.6,36.5,29.87,West,273,0.0,3.0,92,0.00,,,0.00,Wunderground v.1.15,2013-03-08 14:06:00,
2013-03-08 06:08:00,38.7,36.6,29.87,West,273,0.0,3.0,92,0.00,,,0.00,Wunderground v.1.15,2013-03-08 14:08:00,
2013-03-08 06:09:00,38.8,36.7,29.87,West,273,1.0,3.0,92,0.00,,,0.00,Wunderground v.1.15,2013-03-08 14:09:00,
2013-03-08 06:10:00,38.9,36.8,29.87,West,273,0.0,1.0,92,0.00,,,0.00,Wunderground v.1.15,2013-03-08 14:10:00,
2013-03-08 06:12:00,39.0,36.9,29.88,West,274,0.0,1.0,92,0.00,,,0.00,Wunderground v.1.15,2013-03-08 14:12:00,
2013-03-08 06:13:00,39.0,36.6,29.87,West,273,0.0,1.0,91,0.00,,,0.00,Wunderground v.1.15,2013-03-08 14:13:00,
2013-03-08 06:14:00,39.1,36.7,29.88,West,273,0.0,1.0,91,0.00,,,0.00,Wunderground v.1.15,2013-03-08 14:14:00,
2013-03-08 06:15:00,39.0,36.6,29.87,West,273,0.0,1.0,91,0.00,,,0.00,Wunderground v.1.15,2013-03-08 14:15:00,
2013-03-08 06:17:00,39.0,36.3,29.87,West,273,0.0,1.0,90,0.00,,,0.00,Wunderground v.1.15,2013-03-08 14:17:00,
2013-03-08 06:18:00,39.1,36.4,29.87,West,273,0.0,1.0,90,0.00,,,0.00,Wunderground v.1.15,2013-03-08 14:18:00,
2013-03-08 06:20:00,39.1,36.4,29.87,West,273,0.0,1.0,90,0.00,,,0.00,Wunderground v.1.15,2013-03-08 14:20:00,
2013-03-08 06:21:00,39.1,36.4,29.87,West,273,0.0,1.0,90,0.00,,,0.00,Wunderground v.1.15,2013-03-08 14:21:00,
2013-03-08 06:23:00,39.2,36.5,29.87,West,274,0.0,2.0,90,0.00,,,0.00,Wunderground v.1.15,2013-03-08 14:23:00,
2013-03-08 06:25:00,39.2,36.5,29.87,West,273,0.0,2.0,90,0.00,,,0.00,Wunderground v.1.15,2013-03-08 14:25:00,
2013-03-08 06:26:00,39.3,36.6,29.87,West,274,0.0,2.0,90,0.00,,,0.00,Wunderground v.1.15,2013-03-08 14:26:00,
2013-03-08 06:28:00,39.3,36.6,29.87,West,273,0.0,2.0,90,0.00,,,0.00,Wunderground v.1.15,2013-03-08 14:28:00,
2013-03-08 06:29:00,39.3,36.6,29.87,West,273,0.0,2.0,90,0.00,,,0.00,Wunderground v.1.15,2013-03-08 14:29:00,
2013-03-08 06:30:00,39.2,36.5,29.87,West,273,0.0,0.0,90,0.00,,,0.00,Wunderground v.1.15,2013-03-08 14:30:00,
2013-03-08 06:31:00,39.2,36.2,29.87,West,274,0.0,0.0,89,0.00,,,0.00,Wunderground v.1.15,2013-03-08 14:31:00,
2013-03-08 06:33:00,39.2,36.2,29.87,West,273,0.0,0.0,89,0.00,,,0.00,Wunderground v.1.15,2013-03-08 14:33:00,
2013-03-08 06:34:00,39.1,36.1,29.87,West,273,0.0,0.0,89,0.00,,,0.00,Wunderground v.1.15,2013-03-08 14:34:00,
2013-03-08 06:35:00,39.1,36.1,29.87,West,273,0.0,0.0,89,0.00,,,0.00,Wunderground v.1.15,2013-03-08 14:35:00,
2013-03-08 06:36:00,39.1,36.1,29.87,West,274,0.0,0.0,89,0.00,,,0.00,Wunderground v.1.15,2013-03-08 14:36:00,
2013-03-08 06:38:00,39.1,36.1,29.87,West,273,0.0,0.0,89,0.00,,,0.00,Wunderground v.1.15,2013-03-08 14:38:00,
2013-03-08 06:39:00,39.0,36.0,29.88,West,274,0.0,0.0,89,0.00,,,0.00,Wunderground v.1.15,2013-03-08 14:39:00,
2013-03-08 06:41:00,39.0,36.0,29.87,West,273,0.0,0.0,89,0.00,,,0.00,Wunderground v.1.15,2013-03-08 14:41:00,
2013-03-08 06:43:00,39.0,36.0,29.88,West,273,0.0,0.0,89,0.00,,,0.00,Wunderground v.1.15,2013-03-08 14:43:00,
2013-03-08 06:44:00,39.0,36.3,29.88,West,274,0.0,0.0,90,0.00,,,0.00,Wunderground v.1.15,2013-03-08 14:44:00,
2013-03-08 06:46:00,39.1,36.4,29.88,West,274,0.0,0.0,90,0.00,,,0.00,Wunderground v.1.15,2013-03-08 14:46:00,
2013-03-08 06:48:00,39.2,36.5,29.88,West,273,0.0,0.0,90,0.00,,,0.00,Wunderground v.1.15,2013-03-08 14:48:00,
2013-03-08 06:49:00,39.2,36.5,29.88,West,273,0.0,0.0,90,0.00,,,0.00,Wunderground v.1.15,2013-03-08 14:49:00,
2013-03-08 06:51:00,39.3,36.3,29.88,West,273,0.0,0.0,89,0.00,,,0.00,Wunderground v.1.15,2013-03-08 14:51:00,
2013-03-08 06:53:00,39.3,36.3,29.88,West,274,0.0,0.0,89,0.00,,,0.00,Wunderground v.1.15,2013-03-08 14:53:00,
2013-03-08 06:54:00,39.3,36.3,29.88,West,273,1.0,1.0,89,0.00,,,0.00,Wunderground v.1.15,2013-03-08 14:54:00,
2013-03-08 06:56:00,39.3,36.3,29.88,West,273,0.0,1.0,89,0.00,,,0.00,Wunderground v.1.15,2013-03-08 14:56:00,
2013-03-08 06:58:00,39.3,36.3,29.88,West,273,0.0,1.0,89,0.00,,,0.00,Wunderground v.1.15,2013-03-08 14:58:00,
2013-03-08 06:59:00,39.2,36.2,29.88,West,273,1.0,1.0,89,0.00,,,0.00,Wunderground v.1.15,2013-03-08 14:59:00,
2013-03-08 07:01:00,39.3,36.3,29.88,West,273,1.0,1.0,89,0.00,,,0.00,Wunderground v.1.15,2013-03-08 15:01:00,
2013-03-08 07:02:00,39.3,36.3,29.88,West,273,0.0,1.0,89,0.00,,,0.00,Wunderground v.1.15,2013-03-08 15:02:00,
2013-03-08 07:03:00,39.4,36.4,29.88,West,273,0.0,1.0,89,0.00,,,0.00,Wunderground v.1.15,2013-03-08 15:03:00,
2013-03-08 07:04:00,39.5,36.5,29.88,West,273,0.0,1.0,89,0.00,,,0.00,Wunderground v.1.15,2013-03-08 15:04:00,
2013-03-08 07:06:00,39.7,36.7,29.88,West,273,0.0,1.0,89,0.00,,,0.00,Wunderground v.1.15,2013-03-08 15:06:00,
2013-03-08 07:07:00,39.7,36.7,29.88,West,273,0.0,1.0,89,0.00,,,0.00,Wunderground v.1.15,2013-03-08 15:07:00,
2013-03-08 07:08:00,39.8,36.8,29.88,West,273,0.0,1.0,89,0.00,,,0.00,Wunderground v.1.15,2013-03-08 15:08:00,
2013-03-08 07:10:00,39.9,36.9,29.89,West,273,0.0,0.0,89,0.00,,,0.00,Wunderground v.1.15,2013-03-08 15:10:00,
2013-03-08 07:11:00,40.0,37.0,29.89,West,273,0.0,0.0,89,0.00,,,0.00,Wunderground v.1.15,2013-03-08 15:11:00,
2013-03-08 07:12:00,40.1,37.1,29.89,West,273,0.0,0.0,89,0.00,,,0.00,Wunderground v.1.15,2013-03-08 15:12:00,
2013-03-08 07:14:00,40.3,37.3,29.89,West,273,0.0,0.0,89,0.00,,,0.00,Wunderground v.1.15,2013-03-08 15:14:00,
2013-03-08 07:15:00,40.4,37.4,29.89,West,273,0.0,1.0,89,0.00,,,0.00,Wunderground v.1.15,2013-03-08 15:15:00,
2013-03-08 07:16:00,40.6,37.6,29.89,West,273,0.0,1.0,89,0.00,,,0.00,Wunderground v.1.15,2013-03-08 15:16:00,
2013-03-08 07:17:00,40.6,37.6,29.89,West,273,0.0,1.0,89,0.00,,,0.00,Wunderground v.1.15,2013-03-08 15:17:00,
2013-03-08 07:19:00,40.9,37.6,29.89,West,273,0.0,1.0,88,0.00,,,0.00,Wunderground v.1.15,2013-03-08 15:19:00,
2013-03-08 07:20:00,40.9,37.6,29.89,West,273,1.0,1.0,88,0.00,,,0.00,Wunderground v.1.15,2013-03-08 15:20:00,
2013-03-08 07:21:00,41.0,37.7,29.88,West,274,0.0,2.0,88,0.00,,,0.00,Wunderground v.1.15,2013-03-08 15:21:00,
2013-03-08 07:22:00,41.1,37.8,29.88,West,273,0.0,2.0,88,0.00,,,0.00,Wunderground v.1.15,2013-03-08 15:22:00,
2013-03-08 07:24:00,41.1,37.5,29.89,West,273,0.0,2.0,87,0.00,,,0.00,Wunderground v.1.15,2013-03-08 15:24:00,
2013-03-08 07:25:00,41.1,37.5,29.89,West,273,0.0,2.0,87,0.00,,,0.00,Wunderground v.1.15,2013-03-08 15:25:00,
2013-03-08 07:26:00,41.2,37.6,29.89,West,273,0.0,2.0,87,0.00,,,0.00,Wunderground v.1.15,2013-03-08 15:26:00,
2013-03-08 07:27:00,41.3,37.7,29.89,West,273,0.0,2.0,87,0.00,,,0.00,Wunderground v.1.15,2013-03-08 15:27:00,
2013-03-08 07:29:00,41.4,37.8,29.89,West,273,0.0,2.0,87,0.00,,,0.00,Wunderground v.1.15,2013-03-08 15:29:00,
2013-03-08 07:30:00,41.5,37.9,29.89,West,273,0.0,0.0,87,0.00,,,0.00,Wunderground v.1.15,2013-03-08 15:30:00,
2013-03-08 07:32:00,41.5,37.9,29.89,West,273,0.0,0.0,87,0.00,,,0.00,Wunderground v.1.15,2013-03-08 15:32:00,
2013-03-08 07:33:00,41.5,37.9,29.89,West,273,0.0,0.0,87,0.00,,,0.00,Wunderground v.1.15,2013-03-08 15:33:00,
2013-03-08 07:35:00,41.5,37.9,29.89,West,273,0.0,0.0,87,0.00,,,0.00,Wunderground v.1.15,2013-03-08 15:35:00,
2013-03-08 07:37:00,41.6,38.0,29.89,West,273,0.0,2.0,87,0.00,,,0.00,Wunderground v.1.15,2013-03-08 15:37:00,
2013-03-08 07:38:00,41.7,38.1,29.89,West,273,0.0,2.0,87,0.00,,,0.00,Wunderground v.1.15,2013-03-08 15:38:00,
2013-03-08 07:40:00,41.8,38.2,29.89,West,273,0.0,0.0,87,0.00,,,0.00,Wunderground v.1.15,2013-03-08 15:40:00,
2013-03-08 07:42:00,42.1,38.5,29.89,West,273,2.0,4.0,87,0.00,,,0.00,Wunderground v.1.15,2013-03-08 15:42:00,
2013-03-08 07:43:00,42.2,38.6,29.89,West,273,0.0,4.0,87,0.00,,,0.00,Wunderground v.1.15,2013-03-08 15:43:00,
2013-03-08 07:45:00,42.5,38.9,29.89,West,273,0.0,4.0,87,0.00,,,0.00,Wunderground v.1.15,2013-03-08 15:45:00,
2013-03-08 07:46:00,42.5,38.9,29.90,West,273,3.0,4.0,87,0.00,,,0.00,Wunderground v.1.15,2013-03-08 15:46:00,
2013-03-08 07:47:00,42.8,38.9,29.89,West,273,3.0,4.0,86,0.00,,,0.00,Wunderground v.1.15,2013-03-08 15:47:00,
2013-03-08 07:48:00,42.8,38.9,29.89,West,273,0.0,4.0,86,0.00,,,0.00,Wunderground v.1.15,2013-03-08 15:48:00,
2013-03-08 07:50:00,43.1,39.2,29.90,West,273,0.0,2.0,86,0.00,,,0.00,Wunderground v.1.15,2013-03-08 15:50:00,
2013-03-08 07:51:00,43.2,39.3,29.90,West,273,0.0,2.0,86,0.00,,,0.00,Wunderground v.1.15,2013-03-08 15:51:00,
2013-03-08 07:53:00,43.3,39.1,29.90,West,273,0.0,2.0,85,0.00,,,0.00,Wunderground v.1.15,2013-03-08 15:53:00,
2013-03-08 07:55:00,43.6,39.1,29.90,West,273,3.0,4.0,84,0.00,,,0.00,Wunderground v.1.15,2013-03-08 15:55:00,
2013-03-08 07:56:00,43.6,39.1,29.90,West,273,2.0,4.0,84,0.00,,,0.00,Wunderground v.1.15,2013-03-08 15:56:00,
2013-03-08 07:58:00,43.7,39.2,29.90,West,273,2.0,5.0,84,0.00,,,0.00,Wunderground v.1.15,2013-03-08 15:58:00,
2013-03-08 08:01:00,43.9,39.4,29.90,West,273,2.0,4.0,84,0.00,,,0.00,Wunderground v.1.15,2013-03-08 16:01:00,
2013-03-08 08:03:00,44.0,39.2,29.90,West,273,4.0,4.0,83,0.00,,,0.00,Wunderground v.1.15,2013-03-08 16:03:00,
2013-03-08 08:04:00,44.0,39.2,29.90,West,273,1.0,4.0,83,0.00,,,0.00,Wunderground v.1.15,2013-03-08 16:04:00,
2013-03-08 08:06:00,44.1,39.6,29.90,West,273,2.0,5.0,84,0.00,,,0.00,Wunderground v.1.15,2013-03-08 16:06:00,
2013-03-08 08:08:00,44.3,39.8,29.90,West,273,2.0,5.0,84,0.00,,,0.00,Wunderground v.1.15,2013-03-08 16:08:00,
2013-03-08 08:09:00,44.3,39.8,29.90,West,273,3.0,5.0,84,0.00,,,0.00,Wunderground v.1.15,2013-03-08 16:09:00,
2013-03-08 08:11:00,44.5,40.0,29.90,West,273,5.0,6.0,84,0.00,,,0.00,Wunderground v.1.15,2013-03-08 16:11:00,
2013-03-08 08:13:00,44.6,39.8,29.90,West,273,4.0,6.0,83,0.00,,,0.00,Wunderground v.1.15,2013-03-08 16:13:00,
2013-03-08 08:14:00,44.7,39.5,29.90,West,273,0.0,6.0,82,0.00,,,0.00,Wunderground v.1.15,2013-03-08 16:14:00,
2013-03-08 08:16:00,44.9,39.7,29.90,West,273,1.0,6.0,82,0.00,,,0.00,Wunderground v.1.15,2013-03-08 16:16:00,
2013-03-08 08:18:00,45.0,39.8,29.90,West,273,1.0,6.0,82,0.00,,,0.00,Wunderground v.1.15,2013-03-08 16:18:00,
2013-03-08 08:19:00,45.0,39.8,29.90,West,273,2.0,6.0,82,0.00,,,0.00,Wunderground v.1.15,2013-03-08 16:19:00,
2013-03-08 08:21:00,45.3,40.1,29.90,West,273,3.0,3.0,82,0.00,,,0.00,Wunderground v.1.15,2013-03-08 16:21:00,
2013-03-08 08:22:00,45.3,40.1,29.90,West,273,4.0,4.0,82,0.00,,,0.00,Wunderground v.1.15,2013-03-08 16:22:00,
2013-03-08 08:24:00,45.5,39.7,29.91,West,273,2.0,4.0,80,0.00,,,0.00,Wunderground v.1.15,2013-03-08 16:24:00,
2013-03-08 08:26:00,45.8,40.0,29.91,West,273,2.0,4.0,80,0.00,,,0.00,Wunderground v.1.15,2013-03-08 16:26:00,
2013-03-08 08:27:00,45.8,40.0,29.91,West,273,3.0,4.0,80,0.00,,,0.00,Wunderground v.1.15,2013-03-08 16:27:00,
2013-03-08 08:29:00,46.0,39.9,29.91,West,273,4.0,4.0,79,0.00,,,0.00,Wunderground v.1.15,2013-03-08 16:29:00,
2013-03-08 08:30:00,46.0,39.9,29.91,West,273,1.0,2.0,79,0.00,,,0.00,Wunderground v.1.15,2013-03-08 16:30:00,
2013-03-08 08:31:00,46.2,40.4,29.91,West,273,2.0,4.0,80,0.00,,,0.00,Wunderground v.1.15,2013-03-08 16:31:00,
2013-03-08 08:32:00,46.2,40.4,29.91,West,273,3.0,4.0,80,0.00,,,0.00,Wunderground v.1.15,2013-03-08 16:32:00,
2013-03-08 08:34:00,46.4,40.6,29.90,West,273,2.0,5.0,80,0.00,,,0.00,Wunderground v.1.15,2013-03-08 16:34:00,
2013-03-08 08:35:00,46.5,40.7,29.90,West,273,1.0,5.0,80,0.00,,,0.00,Wunderground v.1.15,2013-03-08 16:35:00,
2013-03-08 08:37:00,46.6,40.4,29.91,West,272,4.0,5.0,79,0.00,,,0.00,Wunderground v.1.15,2013-03-08 16:37:00,
2013-03-08 08:39:00,46.8,40.6,29.90,West,270,4.0,5.0,79,0.00,,,0.00,Wunderground v.1.15,2013-03-08 16:39:00,
2013-03-08 08:40:00,46.8,40.6,29.90,West,270,3.0,5.0,79,0.00,,,0.00,Wunderground v.1.15,2013-03-08 16:40:00,
2013-03-08 08:42:00,46.8,40.6,29.90,West,263,3.0,6.0,79,0.00,,,0.00,Wunderground v.1.15,2013-03-08 16:42:00,
2013-03-08 08:44:00,46.8,40.6,29.91,West,263,4.0,6.0,79,0.00,,,0.00,Wunderground v.1.15,2013-03-08 16:44:00,
2013-03-08 08:45:00,46.8,40.6,29.90,West,263,4.0,6.0,79,0.00,,,0.00,Wunderground v.1.15,2013-03-08 16:45:00,
2013-03-08 08:47:00,46.9,41.1,29.90,West,263,4.0,6.0,80,0.00,,,0.00,Wunderground v.1.15,2013-03-08 16:47:00,
2013-03-08 08:50:00,47.0,41.5,29.90,West,266,3.0,3.0,81,0.00,,,0.00,Wunderground v.1.15,2013-03-08 16:50:00,
2013-03-08 08:51:00,47.0,41.1,29.91,West,259,5.0,7.0,80,0.00,,,0.00,Wunderground v.1.15,2013-03-08 16:51:00,
2013-03-08 08:52:00,47.0,41.1,29.91,West,259,4.0,7.0,80,0.00,,,0.00,Wunderground v.1.15,2013-03-08 16:52:00,
2013-03-08 08:55:00,46.8,40.6,29.91,WSW,256,5.0,7.0,79,0.00,,,0.00,Wunderground v.1.15,2013-03-08 16:55:00,
2013-03-08 08:56:00,46.8,41.0,29.91,WSW,256,4.0,7.0,80,0.00,,,0.00,Wunderground v.1.15,2013-03-08 16:56:00,
2013-03-08 08:57:00,46.7,40.9,29.91,WSW,256,3.0,7.0,80,0.00,,,0.00,Wunderground v.1.15,2013-03-08 16:57:00,
2013-03-08 08:58:00,46.7,40.9,29.91,WSW,256,6.0,7.0,80,0.00,,,0.00,Wunderground v.1.15,2013-03-08 16:58:00,
2013-03-08 09:00:00,46.8,41.0,29.91,WSW,256,2.0,4.0,80,0.00,,,0.00,Wunderground v.1.15,2013-03-08 17:00:00,
2013-03-08 09:01:00,46.8,41.0,29.91,WSW,256,4.0,5.0,80,0.00,,,0.00,Wunderground v.1.15,2013-03-08 17:01:00,
2013-03-08 09:02:00,46.8,41.0,29.91,WSW,255,4.0,5.0,80,0.00,,,0.00,Wunderground v.1.15,2013-03-08 17:02:00,
2013-03-08 09:03:00,46.9,41.1,29.91,WSW,254,4.0,6.0,80,0.00,,,0.00,Wunderground v.1.15,2013-03-08 17:03:00,
2013-03-08 09:05:00,47.0,41.1,29.91,WSW,254,4.0,6.0,80,0.00,,,0.00,Wunderground v.1.15,2013-03-08 17:05:00,
2013-03-08 09:06:00,47.2,41.0,29.91,WSW,252,5.0,6.0,79,0.00,,,0.00,Wunderground v.1.15,2013-03-08 17:06:00,
2013-03-08 09:07:00,47.4,41.2,29.91,WSW,253,4.0,7.0,79,0.00,,,0.00,Wunderground v.1.15,2013-03-08 17:07:00,
2013-03-08 09:08:00,47.5,41.3,29.91,WSW,252,4.0,7.0,79,0.00,,,0.00,Wunderground v.1.15,2013-03-08 17:08:00,
2013-03-08 09:10:00,47.7,41.2,29.91,WSW,253,5.0,6.0,78,0.00,,,0.00,Wunderground v.1.15,2013-03-08 17:10:00,
2013-03-08 09:11:00,47.9,41.4,29.91,WSW,255,2.0,6.0,78,0.00,,,0.00,Wunderground v.1.15,2013-03-08 17:11:00,
2013-03-08 09:12:00,48.1,41.6,29.91,WSW,255,0.0,6.0,78,0.00,,,0.00,Wunderground v.1.15,2013-03-08 17:12:00,
2013-03-08 09:13:00,48.4,41.5,29.91,WSW,256,4.0,6.0,77,0.00,,,0.00,Wunderground v.1.15,2013-03-08 17:13:00,
2013-03-08 09:15:00,48.8,41.6,29.91,WSW,249,7.0,9.0,76,0.00,,,0.00,Wunderground v.1.15,2013-03-08 17:15:00,
2013-03-08 09:16:00,49.1,41.5,29.91,WSW,251,4.0,9.0,75,0.00,,,0.00,Wunderground v.1.15,2013-03-08 17:16:00,
2013-03-08 09:18:00,49.2,41.6,29.91,WSW,258,2.0,9.0,75,0.00,,,0.00,Wunderground v.1.15,2013-03-08 17:18:00,
2013-03-08 09:20:00,49.6,41.7,29.90,WSW,256,5.0,5.0,74,0.00,,,0.00,Wunderground v.1.15,2013-03-08 17:20:00,
2013-03-08 09:22:00,49.7,41.7,29.90,WSW,258,2.0,8.0,74,0.00,,,0.00,Wunderground v.1.15,2013-03-08 17:22:00,
2013-03-08 09:23:00,49.9,41.6,29.90,WSW,258,6.0,8.0,73,0.00,,,0.00,Wunderground v.1.15,2013-03-08 17:23:00,
2013-03-08 09:25:00,50.3,41.6,29.90,West,277,3.0,9.0,72,0.00,,,0.00,Wunderground v.1.15,2013-03-08 17:25:00,
2013-03-08 09:27:00,50.5,40.3,29.90,WNW,297,6.0,9.0,68,0.00,,,0.00,Wunderground v.1.15,2013-03-08 17:27:00,
2013-03-08 09:28:00,50.8,40.6,29.90,WNW,299,6.0,9.0,68,0.00,,,0.00,Wunderground v.1.15,2013-03-08 17:28:00,
2013-03-08 09:30:00,51.4,40.8,29.90,NW,305,6.0,8.0,67,0.00,,,0.00,Wunderground v.1.15,2013-03-08 17:30:00,
2013-03-08 09:32:00,51.8,40.0,29.90,WNW,287,9.0,10.0,64,0.00,,,0.00,Wunderground v.1.15,2013-03-08 17:32:00,
2013-03-08 09:33:00,52.0,39.4,29.90,West,279,5.0,10.0,62,0.00,,,0.00,Wunderground v.1.15,2013-03-08 17:33:00,
2013-03-08 09:36:00,52.3,40.1,29.90,NW,308,9.0,10.0,63,0.00,,,0.00,Wunderground v.1.15,2013-03-08 17:36:00,
2013-03-08 09:37:00,52.6,39.9,29.90,WNW,299,6.0,10.0,62,0.00,,,0.00,Wunderground v.1.15,2013-03-08 17:37:00,
2013-03-08 09:38:00,52.7,40.0,29.90,WNW,301,0.0,10.0,62,0.00,,,0.00,Wunderground v.1.15,2013-03-08 17:38:00,
2013-03-08 09:39:00,52.8,39.7,29.90,WNW,300,4.0,10.0,61,0.00,,,0.00,Wunderground v.1.15,2013-03-08 17:39:00,
2013-03-08 09:41:00,53.0,39.5,29.90,West,278,7.0,9.0,60,0.00,,,0.00,Wunderground v.1.15,2013-03-08 17:41:00,
2013-03-08 09:42:00,53.1,40.0,29.91,WNW,285,5.0,9.0,61,0.00,,,0.00,Wunderground v.1.15,2013-03-08 17:42:00,
2013-03-08 09:44:00,53.2,39.7,29.90,WNW,295,8.0,9.0,60,0.00,,,0.00,Wunderground v.1.15,2013-03-08 17:44:00,
2013-03-08 09:46:00,53.2,39.7,29.90,NW,311,4.0,10.0,60,0.00,,,0.00,Wunderground v.1.15,2013-03-08 17:46:00,
2013-03-08 09:47:00,53.2,39.7,29.91,NW,313,7.0,10.0,60,0.00,,,0.00,Wunderground v.1.15,2013-03-08 17:47:00,
2013-03-08 09:49:00,53.2,39.7,29.90,NW,318,9.0,10.0,60,0.00,,,0.00,Wunderground v.1.15,2013-03-08 17:49:00,
2013-03-08 09:51:00,53.5,39.9,29.91,West,276,10.0,10.0,60,0.00,,,0.00,Wunderground v.1.15,2013-03-08 17:51:00,
2013-03-08 09:53:00,53.6,39.6,29.91,West,278,5.0,10.0,59,0.00,,,0.00,Wunderground v.1.15,2013-03-08 17:53:00,
2013-03-08 09:54:00,53.6,39.6,29.91,WNW,295,7.0,10.0,59,0.00,,,0.00,Wunderground v.1.15,2013-03-08 17:54:00,
2013-03-08 09:56:00,53.7,40.1,29.91,WNW,299,7.0,10.0,60,0.00,,,0.00,Wunderground v.1.15,2013-03-08 17:56:00,
2013-03-08 09:58:00,53.8,40.2,29.91,NW,306,6.0,10.0,60,0.00,,,0.00,Wunderground v.1.15,2013-03-08 17:58:00,
2013-03-08 09:59:00,54.0,40.0,29.91,WNW,297,1.0,10.0,59,0.00,,,0.00,Wunderground v.1.15,2013-03-08 17:59:00,
2013-03-08 10:01:00,54.3,40.3,29.91,NW,306,6.0,10.0,59,0.00,,,0.00,Wunderground v.1.15,2013-03-08 18:01:00,
2013-03-08 10:03:00,54.5,40.0,29.91,WNW,299,4.0,10.0,58,0.00,,,0.00,Wunderground v.1.15,2013-03-08 18:03:00,
2013-03-08 10:04:00,54.6,40.1,29.91,WNW,299,4.0,10.0,58,0.00,,,0.00,Wunderground v.1.15,2013-03-08 18:04:00,
2013-03-08 10:06:00,54.9,39.9,29.91,NW,310,7.0,11.0,57,0.00,,,0.00,Wunderground v.1.15,2013-03-08 18:06:00,
2013-03-08 10:08:00,54.9,39.9,29.91,NW,315,6.0,13.0,57,0.00,,,0.00,Wunderground v.1.15,2013-03-08 18:08:00,
2013-03-08 10:09:00,55.0,40.0,29.91,WNW,301,6.0,13.0,57,0.00,,,0.00,Wunderground v.1.15,2013-03-08 18:09:00,
2013-03-08 10:12:00,55.1,39.7,29.91,WNW,301,9.0,12.0,56,0.00,,,0.00,Wunderground v.1.15,2013-03-08 18:12:00,
2013-03-08 10:13:00,55.0,39.1,29.91,WNW,287,9.0,12.0,55,0.00,,,0.00,Wunderground v.1.15,2013-03-08 18:13:00,
2013-03-08 10:14:00,55.0,39.1,29.91,WNW,292,7.0,12.0,55,0.00,,,0.00,Wunderground v.1.15,2013-03-08 18:14:00,
2013-03-08 10:17:00,55.2,39.8,29.91,WNW,289,1.0,12.0,56,0.00,,,0.00,Wunderground v.1.15,2013-03-08 18:17:00,
2013-03-08 10:18:00,55.4,40.4,29.90,WNW,295,9.0,12.0,57,0.00,,,0.00,Wunderground v.1.15,2013-03-08 18:18:00,
2013-03-08 10:19:00,55.6,40.1,29.90,NW,318,5.0,12.0,56,0.00,,,0.00,Wunderground v.1.15,2013-03-08 18:19:00,
2013-03-08 10:20:00,55.6,39.2,29.90,NW,316,6.0,7.0,54,0.00,,,0.00,Wunderground v.1.15,2013-03-08 18:20:00,
2013-03-08 10:22:00,55.7,39.8,29.90,NW,313,5.0,8.0,55,0.00,,,0.00,Wunderground v.1.15,2013-03-08 18:22:00,
2013-03-08 10:23:00,55.7,39.8,29.90,NW,312,5.0,8.0,55,0.00,,,0.00,Wunderground v.1.15,2013-03-08 18:23:00,
2013-03-08 10:24:00,55.8,40.3,29.90,WNW,289,7.0,9.0,56,0.00,,,0.00,Wunderground v.1.15,2013-03-08 18:24:00,
2013-03-08 10:25:00,55.8,39.4,29.90,WNW,286,6.0,9.0,54,0.00,,,0.00,Wunderground v.1.15,2013-03-08 18:25:00,
2013-03-08 10:27:00,55.7,39.3,29.90,WNW,291,5.0,9.0,54,0.00,,,0.00,Wunderground v.1.15,2013-03-08 18:27:00,
2013-03-08 10:29:00,55.7,39.8,29.90,WNW,299,1.0,9.0,55,0.00,,,0.00,Wunderground v.1.15,2013-03-08 18:29:00,
2013-03-08 10:30:00,55.8,40.3,29.90,WNW,303,6.0,6.0,56,0.00,,,0.00,Wunderground v.1.15,2013-03-08 18:30:00,
2013-03-08 10:32:00,55.9,40.0,29.90,NNW,341,9.0,13.0,55,0.00,,,0.00,Wunderground v.1.15,2013-03-08 18:32:00,
2013-03-08 10:34:00,55.9,40.0,29.90,NW,316,8.0,13.0,55,0.00,,,0.00,Wunderground v.1.15,2013-03-08 18:34:00,
2013-03-08 10:35:00,55.9,40.4,29.90,NW,311,7.0,13.0,56,0.00,,,0.00,Wunderground v.1.15,2013-03-08 18:35:00,
2013-03-08 10:36:00,55.9,40.0,29.90,WNW,293,8.0,13.0,55,0.00,,,0.00,Wunderground v.1.15,2013-03-08 18:36:00,
2013-03-08 10:37:00,55.9,39.5,29.90,WNW,290,5.0,13.0,54,0.00,,,0.00,Wunderground v.1.15,2013-03-08 18:37:00,
2013-03-08 10:39:00,55.9,39.5,29.90,WNW,303,3.0,13.0,54,0.00,,,0.00,Wunderground v.1.15,2013-03-08 18:39:00,
2013-03-08 10:40:00,55.9,40.0,29.90,NW,325,7.0,9.0,55,0.00,,,0.00,Wunderground v.1.15,2013-03-08 18:40:00,
2013-03-08 10:41:00,56.0,40.1,29.90,NW,316,6.0,9.0,55,0.00,,,0.00,Wunderground v.1.15,2013-03-08 18:41:00,
2013-03-08 10:42:00,56.3,40.3,29.90,NW,310,8.0,9.0,55,0.00,,,0.00,Wunderground v.1.15,2013-03-08 18:42:00,
2013-03-08 10:44:00,56.4,40.0,29.90,NW,305,6.0,9.0,54,0.00,,,0.00,Wunderground v.1.15,2013-03-08 18:44:00,
2013-03-08 10:45:00,56.4,39.5,29.90,NW,321,8.0,9.0,53,0.00,,,0.00,Wunderground v.1.15,2013-03-08 18:45:00,
2013-03-08 10:46:00,56.4,39.5,29.90,NNW,330,5.0,9.0,53,0.00,,,0.00,Wunderground v.1.15,2013-03-08 18:46:00,
2013-03-08 10:48:00,56.4,40.0,29.90,NNW,330,4.0,9.0,54,0.00,,,0.00,Wunderground v.1.15,2013-03-08 18:48:00,
2013-03-08 10:49:00,56.6,39.2,29.90,WNW,293,7.0,9.0,52,0.00,,,0.00,Wunderground v.1.15,2013-03-08 18:49:00,
2013-03-08 10:50:00,56.7,39.7,29.90,NW,304,5.0,8.0,53,0.00,,,0.00,Wunderground v.1.15,2013-03-08 18:50:00,
2013-03-08 10:51:00,56.8,39.4,29.90,NW,310,6.0,9.0,52,0.00,,,0.00,Wunderground v.1.15,2013-03-08 18:51:00,
2013-03-08 10:53:00,56.9,38.9,29.90,WNW,290,7.0,9.0,51,0.00,,,0.00,Wunderground v.1.15,2013-03-08 18:53:00,
2013-03-08 10:55:00,56.9,38.9,29.90,WNW,294,5.0,11.0,51,0.00,,,0.00,Wunderground v.1.15,2013-03-08 18:55:00,
2013-03-08 10:56:00,56.8,38.9,29.90,WNW,295,7.0,11.0,51,0.00,,,0.00,Wunderground v.1.15,2013-03-08 18:56:00,
2013-03-08 10:58:00,56.9,39.4,29.90,WNW,299,4.0,11.0,52,0.00,,,0.00,Wunderground v.1.15,2013-03-08 18:58:00,
2013-03-08 11:00:00,57.0,39.0,29.90,WNW,292,3.0,5.0,51,0.00,,,0.00,Wunderground v.1.15,2013-03-08 19:00:00,
2013-03-08 11:01:00,57.1,39.1,29.90,WNW,290,5.0,6.0,51,0.00,,,0.00,Wunderground v.1.15,2013-03-08 19:01:00,
2013-03-08 11:02:00,57.2,39.7,29.90,WNW,284,7.0,7.0,52,0.00,,,0.00,Wunderground v.1.15,2013-03-08 19:02:00,
2013-03-08 11:03:00,57.3,41.7,29.90,WSW,238,7.0,10.0,56,0.00,,,0.00,Wunderground v.1.15,2013-03-08 19:03:00,
2013-03-08 11:05:00,57.3,41.7,29.90,WSW,241,0.0,10.0,56,0.00,,,0.00,Wunderground v.1.15,2013-03-08 19:05:00,
2013-03-08 11:06:00,57.4,42.3,29.90,WSW,243,6.0,10.0,57,0.00,,,0.00,Wunderground v.1.15,2013-03-08 19:06:00,
2013-03-08 11:07:00,57.7,40.2,29.90,West,269,6.0,10.0,52,0.00,,,0.00,Wunderground v.1.15,2013-03-08 19:07:00,
2013-03-08 11:09:00,57.9,39.9,29.90,WNW,285,6.0,10.0,51,0.00,,,0.00,Wunderground v.1.15,2013-03-08 19:09:00,
2013-03-08 11:10:00,58.0,39.5,29.90,NW,318,5.0,5.0,50,0.00,,,0.00,Wunderground v.1.15,2013-03-08 19:10:00,
2013-03-08 11:11:00,58.1,39.5,29.90,NW,320,5.0,9.0,50,0.00,,,0.00,Wunderground v.1.15,2013-03-08 19:11:00,
2013-03-08 11:12:00,58.1,39.0,29.90,NW,316,5.0,9.0,49,0.00,,,0.00,Wunderground v.1.15,2013-03-08 19:12:00,
2013-03-08 11:14:00,58.2,39.1,29.90,WNW,301,9.0,9.0,49,0.00,,,0.00,Wunderground v.1.15,2013-03-08 19:14:00,
2013-03-08 11:15:00,58.2,38.6,29.90,NW,316,6.0,10.0,48,0.00,,,0.00,Wunderground v.1.15,2013-03-08 19:15:00,
2013-03-08 11:16:00,58.3,38.7,29.90,NW,312,4.0,10.0,48,0.00,,,0.00,Wunderground v.1.15,2013-03-08 19:16:00,
2013-03-08 11:17:00,58.2,38.6,29.90,NW,312,1.0,10.0,48,0.00,,,0.00,Wunderground v.1.15,2013-03-08 19:17:00,
2013-03-08 11:19:00,58.2,38.6,29.90,NW,305,6.0,10.0,48,0.00,,,0.00,Wunderground v.1.15,2013-03-08 19:19:00,
2013-03-08 11:20:00,58.2,39.1,29.90,WNW,297,4.0,7.0,49,0.00,,,0.00,Wunderground v.1.15,2013-03-08 19:20:00,
2013-03-08 11:21:00,58.4,39.3,29.90,NW,304,10.0,10.0,49,0.00,,,0.00,Wunderground v.1.15,2013-03-08 19:21:00,
2013-03-08 11:22:00,58.5,39.4,29.90,WNW,295,3.0,10.0,49,0.00,,,0.00,Wunderground v.1.15,2013-03-08 19:22:00,
2013-03-08 11:24:00,58.6,39.5,29.90,WNW,286,5.0,10.0,49,0.00,,,0.00,Wunderground v.1.15,2013-03-08 19:24:00,
2013-03-08 11:25:00,58.6,39.0,29.89,WNW,286,5.0,10.0,48,0.00,,,0.00,Wunderground v.1.15,2013-03-08 19:25:00,
2013-03-08 11:26:00,58.7,39.6,29.89,WNW,285,6.0,10.0,49,0.00,,,0.00,Wunderground v.1.15,2013-03-08 19:26:00,
2013-03-08 11:27:00,58.8,39.1,29.90,NW,308,4.0,10.0,48,0.00,,,0.00,Wunderground v.1.15,2013-03-08 19:27:00,
2013-03-08 11:29:00,58.9,38.7,29.90,NNW,333,6.0,10.0,47,0.00,,,0.00,Wunderground v.1.15,2013-03-08 19:29:00,
2013-03-08 11:30:00,58.9,38.7,29.89,NNW,329,4.0,9.0,47,0.00,,,0.00,Wunderground v.1.15,2013-03-08 19:30:00,
2013-03-08 11:31:00,58.8,38.6,29.89,NNW,341,11.0,12.0,47,0.00,,,0.00,Wunderground v.1.15,2013-03-08 19:31:00,
2013-03-08 11:32:00,58.7,38.5,29.89,NW,316,11.0,12.0,47,0.00,,,0.00,Wunderground v.1.15,2013-03-08 19:32:00,
2013-03-08 11:34:00,58.6,38.4,29.90,NW,305,5.0,12.0,47,0.00,,,0.00,Wunderground v.1.15,2013-03-08 19:34:00,
2013-03-08 11:35:00,58.6,39.0,29.89,NW,314,7.0,12.0,48,0.00,,,0.00,Wunderground v.1.15,2013-03-08 19:35:00,
2013-03-08 11:37:00,58.9,38.7,29.89,West,277,9.0,12.0,47,0.00,,,0.00,Wunderground v.1.15,2013-03-08 19:37:00,
2013-03-08 11:38:00,58.8,38.6,29.89,West,271,3.0,12.0,47,0.00,,,0.00,Wunderground v.1.15,2013-03-08 19:38:00,
2013-03-08 11:39:00,58.9,39.2,29.89,West,268,5.0,12.0,48,0.00,,,0.00,Wunderground v.1.15,2013-03-08 19:39:00,
2013-03-08 11:40:00,58.9,39.2,29.89,West,279,5.0,7.0,48,0.00,,,0.00,Wunderground v.1.15,2013-03-08 19:40:00,
2013-03-08 11:42:00,59.2,39.5,29.90,NW,305,7.0,10.0,48,0.00,,,0.00,Wunderground v.1.15,2013-03-08 19:42:00,
2013-03-08 11:43:00,59.3,39.1,29.90,NW,305,9.0,10.0,47,0.00,,,0.00,Wunderground v.1.15,2013-03-08 19:43:00,
2013-03-08 11:44:00,59.3,38.5,29.90,WNW,283,5.0,16.0,46,0.00,,,0.00,Wunderground v.1.15,2013-03-08 19:44:00,
2013-03-08 11:46:00,59.1,42.0,29.89,West,260,6.0,16.0,53,0.00,,,0.00,Wunderground v.1.15,2013-03-08 19:46:00,
2013-03-08 11:47:00,59.2,40.6,29.90,WNW,287,6.0,16.0,50,0.00,,,0.00,Wunderground v.1.15,2013-03-08 19:47:00,
2013-03-08 11:48:00,59.2,41.1,29.89,WNW,285,2.0,16.0,51,0.00,,,0.00,Wunderground v.1.15,2013-03-08 19:48:00,
2013-03-08 11:49:00,59.3,41.7,29.89,West,281,4.0,16.0,52,0.00,,,0.00,Wunderground v.1.15,2013-03-08 19:49:00,
2013-03-08 11:51:00,59.3,39.1,29.89,WNW,301,5.0,7.0,47,0.00,,,0.00,Wunderground v.1.15,2013-03-08 19:51:00,
2013-03-08 11:53:00,59.3,39.1,29.89,WNW,303,4.0,10.0,47,0.00,,,0.00,Wunderground v.1.15,2013-03-08 19:53:00,
2013-03-08 11:55:00,59.5,39.2,29.89,NW,304,6.0,10.0,47,0.00,,,0.00,Wunderground v.1.15,2013-03-08 19:55:00,
2013-03-08 11:56:00,59.8,39.0,29.89,NW,308,6.0,10.0,46,0.00,,,0.00,Wunderground v.1.15,2013-03-08 19:56:00,
2013-03-08 11:58:00,59.9,38.5,29.89,WNW,301,6.0,10.0,45,0.00,,,0.00,Wunderground v.1.15,2013-03-08 19:58:00,
2013-03-08 11:59:00,59.8,39.5,29.89,WNW,291,9.0,10.0,47,0.00,,,0.00,Wunderground v.1.15,2013-03-08 19:59:00,
2013-03-08 12:00:00,59.9,39.6,29.89,WNW,290,9.0,9.0,47,0.00,,,0.00,Wunderground v.1.15,2013-03-08 20:00:00,
2013-03-08 12:01:00,60.0,40.8,29.88,West,271,23.0,24.0,49,0.00,,,0.00,Wunderground v.1.15,2013-03-08 20:01:00,
2013-03-08 12:03:00,60.1,40.3,29.90,NW,315,10.0,24.0,48,0.00,,,0.00,Wunderground v.1.15,2013-03-08 20:03:00,
2013-03-08 12:04:00,60.0,40.8,29.89,WNW,285,5.0,24.0,49,0.00,,,0.00,Wunderground v.1.15,2013-03-08 20:04:00,
2013-03-08 12:05:00,59.9,41.7,29.89,WSW,255,13.0,24.0,51,0.00,,,0.00,Wunderground v.1.15,2013-03-08 20:05:00,
2013-03-08 12:07:00,59.5,41.3,29.89,WSW,239,9.0,24.0,51,0.00,,,0.00,Wunderground v.1.15,2013-03-08 20:07:00,
2013-03-08 12:08:00,59.4,41.3,29.89,WSW,251,9.0,24.0,51,0.00,,,0.00,Wunderground v.1.15,2013-03-08 20:08:00,
2013-03-08 12:09:00,59.5,41.9,29.89,West,262,9.0,24.0,52,0.00,,,0.00,Wunderground v.1.15,2013-03-08 20:09:00,
2013-03-08 12:10:00,59.8,41.6,29.89,West,259,4.0,10.0,51,0.00,,,0.00,Wunderground v.1.15,2013-03-08 20:10:00,
2013-03-08 12:12:00,60.0,40.8,29.89,West,265,5.0,12.0,49,0.00,,,0.00,Wunderground v.1.15,2013-03-08 20:12:00,
2013-03-08 12:13:00,60.1,40.9,29.89,West,262,8.0,12.0,49,0.00,,,0.00,Wunderground v.1.15,2013-03-08 20:13:00,
2013-03-08 12:14:00,60.2,41.0,29.89,West,274,10.0,12.0,49,0.00,,,0.00,Wunderground v.1.15,2013-03-08 20:14:00,
2013-03-08 12:16:00,60.0,40.8,29.89,West,267,12.0,15.0,49,0.00,,,0.00,Wunderground v.1.15,2013-03-08 20:16:00,
2013-03-08 12:17:00,59.8,40.6,29.89,West,268,9.0,15.0,49,0.00,,,0.00,Wunderground v.1.15,2013-03-08 20:17:00,
2013-03-08 12:19:00,60.0,41.8,29.89,WSW,255,7.0,15.0,51,0.00,,,0.00,Wunderground v.1.15,2013-03-08 20:19:00,
2013-03-08 12:21:00,59.8,40.6,29.89,WNW,283,12.0,18.0,49,0.00,,,0.00,Wunderground v.1.15,2013-03-08 20:21:00,
2013-03-08 12:23:00,59.6,41.4,29.89,West,265,14.0,18.0,51,0.00,,,0.00,Wunderground v.1.15,2013-03-08 20:23:00,
2013-03-08 12:24:00,59.4,41.3,29.89,West,272,10.0,18.0,51,0.00,,,0.00,Wunderground v.1.15,2013-03-08 20:24:00,
2013-03-08 12:26:00,59.5,41.9,29.89,West,260,12.0,18.0,52,0.00,,,0.00,Wunderground v.1.15,2013-03-08 20:26:00,
2013-03-08 12:28:00,59.7,40.5,29.89,WSW,256,12.0,18.0,49,0.00,,,0.00,Wunderground v.1.15,2013-03-08 20:28:00,
2013-03-08 12:29:00,59.6,40.9,29.89,West,272,11.0,18.0,50,0.00,,,0.00,Wunderground v.1.15,2013-03-08 20:29:00,
2013-03-08 12:32:00,59.5,40.8,29.88,West,264,7.0,18.0,50,0.00,,,0.00,Wunderground v.1.15,2013-03-08 20:32:00,
2013-03-08 12:34:00,59.8,41.1,29.88,West,264,16.0,18.0,50,0.00,,,0.00,Wunderground v.1.15,2013-03-08 20:34:00,
2013-03-08 12:35:00,59.8,42.1,29.88,West,280,10.0,18.0,52,0.00,,,0.00,Wunderground v.1.15,2013-03-08 20:35:00,
2013-03-08 12:37:00,60.0,42.3,29.88,WNW,288,9.0,18.0,52,0.00,,,0.00,Wunderground v.1.15,2013-03-08 20:37:00,
2013-03-08 12:39:00,60.3,41.6,29.88,West,260,8.0,18.0,50,0.00,,,0.00,Wunderground v.1.15,2013-03-08 20:39:00,
2013-03-08 12:40:00,60.2,41.0,29.88,WSW,249,12.0,16.0,49,0.00,,,0.00,Wunderground v.1.15,2013-03-08 20:40:00,
2013-03-08 12:42:00,60.2,41.5,29.88,WSW,256,10.0,16.0,50,0.00,,,0.00,Wunderground v.1.15,2013-03-08 20:42:00,
2013-03-08 12:44:00,60.4,41.7,29.88,WSW,256,10.0,16.0,50,0.00,,,0.00,Wunderground v.1.15,2013-03-08 20:44:00,
2013-03-08 12:45:00,60.6,41.8,29.88,WSW,256,7.0,16.0,50,0.00,,,0.00,Wunderground v.1.15,2013-03-08 20:45:00,
2013-03-08 12:47:00,60.5,42.3,29.88,WSW,258,5.0,16.0,51,0.00,,,0.00,Wunderground v.1.15,2013-03-08 20:47:00,
2013-03-08 12:49:00,60.4,43.2,29.88,WSW,251,8.0,16.0,53,0.00,,,0.00,Wunderground v.1.15,2013-03-08 20:49:00,
2013-03-08 12:50:00,60.2,44.0,29.88,WSW,247,7.0,11.0,55,0.00,,,0.00,Wunderground v.1.15,2013-03-08 20:50:00,
2013-03-08 12:52:00,60.1,45.3,29.88,WSW,243,8.0,19.0,58,0.00,,,0.00,Wunderground v.1.15,2013-03-08 20:52:00,
2013-03-08 12:54:00,59.7,46.2,29.88,WSW,245,13.0,19.0,61,0.00,,,0.00,Wunderground v.1.15,2013-03-08 20:54:00,
2013-03-08 12:55:00,59.8,46.7,29.88,West,264,9.0,19.0,62,0.00,,,0.00,Wunderground v.1.15,2013-03-08 20:55:00,
2013-03-08 12:57:00,59.9,46.0,29.88,West,265,8.0,19.0,60,0.00,,,0.00,Wunderground v.1.15,2013-03-08 20:57:00,
2013-03-08 12:59:00,59.1,46.1,29.88,West,263,14.0,20.0,62,0.00,,,0.00,Wunderground v.1.15,2013-03-08 20:59:00,
2013-03-08 13:00:00,58.9,46.3,29.88,West,260,10.0,14.0,63,0.00,,,0.00,Wunderground v.1.15,2013-03-08 21:00:00,
2013-03-08 13:01:00,59.0,46.8,29.88,WSW,247,9.0,14.0,64,0.00,,,0.00,Wunderground v.1.15,2013-03-08 21:01:00,
2013-03-08 13:02:00,59.1,46.9,29.88,WSW,254,14.0,14.0,64,0.00,,,0.00,Wunderground v.1.15,2013-03-08 21:02:00,
2013-03-08 13:04:00,59.3,46.3,29.88,West,262,11.0,17.0,62,0.00,,,0.00,Wunderground v.1.15,2013-03-08 21:04:00,
2013-03-08 13:05:00,59.2,46.2,29.88,WSW,250,16.0,17.0,62,0.00,,,0.00,Wunderground v.1.15,2013-03-08 21:05:00,
2013-03-08 13:06:00,59.1,46.1,29.88,West,263,13.0,17.0,62,0.00,,,0.00,Wunderground v.1.15,2013-03-08 21:06:00,
2013-03-08 13:07:00,58.8,45.8,29.88,WSW,239,13.0,19.0,62,0.00,,,0.00,Wunderground v.1.15,2013-03-08 21:07:00,
2013-03-08 13:09:00,58.3,45.8,29.88,SW,229,12.0,20.0,63,0.00,,,0.00,Wunderground v.1.15,2013-03-08 21:09:00,
2013-03-08 13:10:00,58.3,46.2,29.88,WSW,249,13.0,20.0,64,0.00,,,0.00,Wunderground v.1.15,2013-03-08 21:10:00,
2013-03-08 13:11:00,58.3,46.2,29.88,West,260,12.0,20.0,64,0.00,,,0.00,Wunderground v.1.15,2013-03-08 21:11:00,
2013-03-08 13:12:00,58.4,46.3,29.88,WSW,255,10.0,20.0,64,0.00,,,0.00,Wunderground v.1.15,2013-03-08 21:12:00,
2013-03-08 13:14:00,58.5,45.9,29.88,WSW,238,18.0,20.0,63,0.00,,,0.00,Wunderground v.1.15,2013-03-08 21:14:00,
2013-03-08 13:15:00,58.4,45.8,29.88,WSW,251,14.0,20.0,63,0.00,,,0.00,Wunderground v.1.15,2013-03-08 21:15:00,
2013-03-08 13:16:00,58.4,46.3,29.88,WSW,251,15.0,20.0,64,0.00,,,0.00,Wunderground v.1.15,2013-03-08 21:16:00,
2013-03-08 13:17:00,58.5,45.9,29.88,WSW,254,9.0,20.0,63,0.00,,,0.00,Wunderground v.1.15,2013-03-08 21:17:00,
2013-03-08 13:19:00,59.0,46.4,29.88,WNW,288,11.0,20.0,63,0.00,,,0.00,Wunderground v.1.15,2013-03-08 21:19:00,
2013-03-08 13:20:00,59.0,46.0,29.88,West,269,9.0,15.0,62,0.00,,,0.00,Wunderground v.1.15,2013-03-08 21:20:00,
2013-03-08 13:22:00,58.9,45.5,29.88,West,277,15.0,19.0,61,0.00,,,0.00,Wunderground v.1.15,2013-03-08 21:22:00,
2013-03-08 13:23:00,58.7,45.7,29.88,WSW,244,9.0,19.0,62,0.00,,,0.00,Wunderground v.1.15,2013-03-08 21:23:00,
2013-03-08 13:25:00,58.8,46.6,29.88,West,269,8.0,19.0,64,0.00,,,0.00,Wunderground v.1.15,2013-03-08 21:25:00,
2013-03-08 13:26:00,58.9,46.3,29.88,West,274,7.0,19.0,63,0.00,,,0.00,Wunderground v.1.15,2013-03-08 21:26:00,
2013-03-08 13:27:00,58.8,46.6,29.87,SW,235,16.0,19.0,64,0.00,,,0.00,Wunderground v.1.15,2013-03-08 21:27:00,
2013-03-08 13:28:00,58.6,46.0,29.88,WSW,241,18.0,19.0,63,0.00,,,0.00,Wunderground v.1.15,2013-03-08 21:28:00,
2013-03-08 13:30:00,58.3,46.2,29.87,WSW,257,13.0,13.0,64,0.00,,,0.00,Wunderground v.1.15,2013-03-08 21:30:00,
2013-03-08 13:31:00,58.4,46.3,29.87,WSW,249,13.0,13.0,64,0.00,,,0.00,Wunderground v.1.15,2013-03-08 21:31:00,
2013-03-08 13:32:00,58.4,45.8,29.87,WSW,249,13.0,19.0,63,0.00,,,0.00,Wunderground v.1.15,2013-03-08 21:32:00,
2013-03-08 13:33:00,58.4,45.8,29.87,WSW,244,11.0,19.0,63,0.00,,,0.00,Wunderground v.1.15,2013-03-08 21:33:00,
2013-03-08 13:35:00,58.6,46.9,29.87,WSW,253,15.0,19.0,65,0.00,,,0.00,Wunderground v.1.15,2013-03-08 21:35:00,
2013-03-08 13:36:00,58.7,46.5,29.87,West,260,15.0,19.0,64,0.00,,,0.00,Wunderground v.1.15,2013-03-08 21:36:00,
2013-03-08 13:37:00,58.7,46.5,29.87,WSW,243,13.0,19.0,64,0.00,,,0.00,Wunderground v.1.15,2013-03-08 21:37:00,
2013-03-08 13:38:00,58.7,46.5,29.87,WSW,247,8.0,19.0,64,0.00,,,0.00,Wunderground v.1.15,2013-03-08 21:38:00,
2013-03-08 13:40:00,58.7,46.5,29.87,WSW,251,12.0,18.0,64,0.00,,,0.00,Wunderground v.1.15,2013-03-08 21:40:00,
2013-03-08 13:41:00,58.6,46.0,29.87,West,271,7.0,18.0,63,0.00,,,0.00,Wunderground v.1.15,2013-03-08 21:41:00,
2013-03-08 13:42:00,58.8,47.1,29.87,WSW,241,11.0,18.0,65,0.00,,,0.00,Wunderground v.1.15,2013-03-08 21:42:00,
2013-03-08 13:43:00,58.9,46.7,29.87,SW,233,16.0,19.0,64,0.00,,,0.00,Wunderground v.1.15,2013-03-08 21:43:00,
2013-03-08 13:45:00,58.7,46.1,29.87,WNW,283,8.0,19.0,63,0.00,,,0.00,Wunderground v.1.15,2013-03-08 21:45:00,
2013-03-08 13:46:00,59.0,46.4,29.87,WSW,256,9.0,19.0,63,0.00,,,0.00,Wunderground v.1.15,2013-03-08 21:46:00,
2013-03-08 13:47:00,59.2,46.6,29.87,West,274,8.0,19.0,63,0.00,,,0.00,Wunderground v.1.15,2013-03-08 21:47:00,
2013-03-08 13:48:00,59.6,46.6,29.87,West,260,8.0,19.0,62,0.00,,,0.00,Wunderground v.1.15,2013-03-08 21:48:00,
2013-03-08 13:50:00,59.3,46.3,29.87,WSW,244,14.0,18.0,62,0.00,,,0.00,Wunderground v.1.15,2013-03-08 21:50:00,
2013-03-08 13:51:00,59.0,46.0,29.87,WSW,248,18.0,22.0,62,0.00,,,0.00,Wunderground v.1.15,2013-03-08 21:51:00,
2013-03-08 13:52:00,58.7,46.1,29.87,SW,226,20.0,22.0,63,0.00,,,0.00,Wunderground v.1.15,2013-03-08 21:52:00,
2013-03-08 13:54:00,58.6,46.5,29.87,WSW,247,12.0,22.0,64,0.00,,,0.00,Wunderground v.1.15,2013-03-08 21:54:00,
2013-03-08 13:56:00,58.5,45.9,29.87,WSW,241,11.0,22.0,63,0.00,,,0.00,Wunderground v.1.15,2013-03-08 21:56:00,
2013-03-08 13:57:00,58.4,45.8,29.87,WSW,243,11.0,22.0,63,0.00,,,0.00,Wunderground v.1.15,2013-03-08 21:57:00,
2013-03-08 13:59:00,58.4,46.3,29.87,SW,234,14.0,22.0,64,0.00,,,0.00,Wunderground v.1.15,2013-03-08 21:59:00,
2013-03-08 14:01:00,58.7,46.1,29.87,WSW,239,8.0,16.0,63,0.00,,,0.00,Wunderground v.1.15,2013-03-08 22:01:00,
2013-03-08 14:02:00,58.6,45.6,29.87,WSW,247,15.0,18.0,62,0.00,,,0.00,Wunderground v.1.15,2013-03-08 22:02:00,
2013-03-08 14:04:00,58.6,45.6,29.87,West,262,13.0,18.0,62,0.00,,,0.00,Wunderground v.1.15,2013-03-08 22:04:00,
2013-03-08 14:06:00,58.5,45.1,29.87,West,259,16.0,20.0,61,0.00,,,0.00,Wunderground v.1.15,2013-03-08 22:06:00,
2013-03-08 14:08:00,58.5,45.5,29.87,West,260,12.0,20.0,62,0.00,,,0.00,Wunderground v.1.15,2013-03-08 22:08:00,
2013-03-08 14:09:00,58.6,46.0,29.87,WSW,240,8.0,20.0,63,0.00,,,0.00,Wunderground v.1.15,2013-03-08 22:09:00,
2013-03-08 14:11:00,58.9,46.3,29.87,SW,235,13.0,16.0,63,0.00,,,0.00,Wunderground v.1.15,2013-03-08 22:11:00,
2013-03-08 14:13:00,58.7,45.7,29.87,WSW,255,11.0,17.0,62,0.00,,,0.00,Wunderground v.1.15,2013-03-08 22:13:00,
2013-03-08 14:14:00,58.8,46.6,29.87,WNW,289,11.0,17.0,64,0.00,,,0.00,Wunderground v.1.15,2013-03-08 22:14:00,
2013-03-08 14:16:00,58.9,46.7,29.87,West,260,17.0,19.0,64,0.00,,,0.00,Wunderground v.1.15,2013-03-08 22:16:00,
2013-03-08 14:18:00,58.8,47.1,29.87,WNW,284,15.0,19.0,65,0.00,,,0.00,Wunderground v.1.15,2013-03-08 22:18:00,
2013-03-08 14:19:00,58.8,46.6,29.87,West,261,13.0,19.0,64,0.00,,,0.00,Wunderground v.1.15,2013-03-08 22:19:00,
2013-03-08 14:21:00,59.1,47.3,29.87,WSW,244,9.0,15.0,65,0.00,,,0.00,Wunderground v.1.15,2013-03-08 22:21:00,
2013-03-08 14:24:00,58.8,46.2,29.87,WSW,241,14.0,16.0,63,0.00,,,0.00,Wunderground v.1.15,2013-03-08 22:24:00,
2013-03-08 14:26:00,58.2,46.1,29.87,WSW,255,12.0,21.0,64,0.00,,,0.00,Wunderground v.1.15,2013-03-08 22:26:00,
2013-03-08 14:27:00,58.3,46.2,29.87,WSW,253,16.0,21.0,64,0.00,,,0.00,Wunderground v.1.15,2013-03-08 22:27:00,
2013-03-08 14:29:00,58.3,46.2,29.87,WSW,243,16.0,21.0,64,0.00,,,0.00,Wunderground v.1.15,2013-03-08 22:29:00,
2013-03-08 14:32:00,58.2,46.5,29.88,West,266,14.0,22.0,65,0.00,,,0.00,Wunderground v.1.15,2013-03-08 22:32:00,
2013-03-08 14:34:00,58.2,46.5,29.88,SW,234,14.0,22.0,65,0.00,,,0.00,Wunderground v.1.15,2013-03-08 22:34:00,
2013-03-08 14:37:00,57.8,46.5,29.88,WSW,258,8.0,22.0,66,0.00,,,0.00,Wunderground v.1.15,2013-03-08 22:37:00,
2013-03-08 14:39:00,57.8,45.7,29.88,WSW,257,13.0,22.0,64,0.00,,,0.00,Wunderground v.1.15,2013-03-08 22:39:00,
2013-03-08 14:42:00,57.8,46.5,29.88,SW,235,12.0,20.0,66,0.00,,,0.00,Wunderground v.1.15,2013-03-08 22:42:00,
2013-03-08 14:44:00,57.5,46.2,29.88,WSW,254,14.0,23.0,66,0.00,,,0.00,Wunderground v.1.15,2013-03-08 22:44:00,
2013-03-08 14:47:00,57.6,46.7,29.88,WSW,247,13.0,23.0,67,0.00,,,0.00,Wunderground v.1.15,2013-03-08 22:47:00,
2013-03-08 14:49:00,57.5,46.2,29.88,WSW,247,13.0,23.0,66,0.00,,,0.00,Wunderground v.1.15,2013-03-08 22:49:00,
2013-03-08 14:50:00,57.3,46.4,29.88,WSW,243,15.0,15.0,67,0.00,,,0.00,Wunderground v.1.15,2013-03-08 22:50:00,
2013-03-08 14:52:00,57.0,46.1,29.88,West,277,10.0,24.0,67,0.00,,,0.00,Wunderground v.1.15,2013-03-08 22:52:00,
2013-03-08 14:53:00,57.0,46.1,29.88,West,278,9.0,24.0,67,0.00,,,0.00,Wunderground v.1.15,2013-03-08 22:53:00,
2013-03-08 14:54:00,57.1,46.2,29.88,WSW,258,10.0,24.0,67,0.00,,,0.00,Wunderground v.1.15,2013-03-08 22:54:00,
2013-03-08 14:55:00,57.1,46.2,29.88,WSW,254,13.0,24.0,67,0.00,,,0.00,Wunderground v.1.15,2013-03-08 22:55:00,
2013-03-08 14:57:00,57.1,45.8,29.88,SW,235,14.0,24.0,66,0.00,,,0.00,Wunderground v.1.15,2013-03-08 22:57:00,
2013-03-08 14:58:00,57.0,45.7,29.88,WSW,246,10.0,24.0,66,0.00,,,0.00,Wunderground v.1.15,2013-03-08 22:58:00,
2013-03-08 15:00:00,57.0,45.7,29.88,WSW,247,11.0,15.0,66,0.00,,,0.00,Wunderground v.1.15,2013-03-08 23:00:00,
2013-03-08 15:03:00,57.4,46.5,29.88,West,274,12.0,18.0,67,0.00,,,0.00,Wunderground v.1.15,2013-03-08 23:03:00,
2013-03-08 15:05:00,57.6,46.3,29.88,West,264,8.0,18.0,66,0.00,,,0.00,Wunderground v.1.15,2013-03-08 23:05:00,
2013-03-08 15:08:00,57.7,46.4,29.88,WSW,252,13.0,22.0,66,0.00,,,0.00,Wunderground v.1.15,2013-03-08 23:08:00,
2013-03-08 15:09:00,57.8,46.5,29.88,WSW,247,13.0,22.0,66,0.00,,,0.00,Wunderground v.1.15,2013-03-08 23:09:00,
2013-03-08 15:10:00,57.7,46.4,29.88,WSW,249,20.0,22.0,66,0.00,,,0.00,Wunderground v.1.15,2013-03-08 23:10:00,
2013-03-08 15:13:00,57.2,45.9,29.88,WSW,250,9.0,22.0,66,0.00,,,0.00,Wunderground v.1.15,2013-03-08 23:13:00,
2013-03-08 15:14:00,57.1,46.2,29.88,WSW,248,19.0,22.0,67,0.00,,,0.00,Wunderground v.1.15,2013-03-08 23:14:00,
2013-03-08 15:15:00,57.0,45.7,29.88,West,269,9.0,22.0,66,0.00,,,0.00,Wunderground v.1.15,2013-03-08 23:15:00,
2013-03-08 15:18:00,57.0,46.1,29.88,WSW,258,15.0,22.0,67,0.00,,,0.00,Wunderground v.1.15,2013-03-08 23:18:00,
2013-03-08 15:19:00,56.9,46.1,29.88,WSW,247,12.0,22.0,67,0.00,,,0.00,Wunderground v.1.15,2013-03-08 23:19:00,
2013-03-08 15:20:00,56.9,46.1,29.89,WSW,249,14.0,16.0,67,0.00,,,0.00,Wunderground v.1.15,2013-03-08 23:20:00,
2013-03-08 15:21:00,56.9,46.1,29.89,SW,235,18.0,18.0,67,0.00,,,0.00,Wunderground v.1.15,2013-03-08 23:21:00,
2013-03-08 15:23:00,56.7,45.9,29.88,WSW,253,18.0,22.0,67,0.00,,,0.00,Wunderground v.1.15,2013-03-08 23:23:00,
2013-03-08 15:25:00,56.7,45.9,29.88,WSW,237,10.0,22.0,67,0.00,,,0.00,Wunderground v.1.15,2013-03-08 23:25:00,
2013-03-08 15:26:00,56.7,45.9,29.89,WSW,238,17.0,23.0,67,0.00,,,0.00,Wunderground v.1.15,2013-03-08 23:26:00,
2013-03-08 15:29:00,56.7,46.3,29.88,West,274,10.0,23.0,68,0.00,,,0.00,Wunderground v.1.15,2013-03-08 23:29:00,
2013-03-08 15:30:00,56.8,46.0,29.89,WSW,250,19.0,19.0,67,0.00,,,0.00,Wunderground v.1.15,2013-03-08 23:30:00,
2013-03-08 15:31:00,56.6,45.8,29.89,WSW,253,15.0,19.0,67,0.00,,,0.00,Wunderground v.1.15,2013-03-08 23:31:00,
2013-03-08 15:35:00,56.3,45.9,29.88,West,271,16.0,21.0,68,0.00,,,0.00,Wunderground v.1.15,2013-03-08 23:35:00,
2013-03-08 15:37:00,56.2,46.2,29.88,WSW,255,16.0,24.0,69,0.00,,,0.00,Wunderground v.1.15,2013-03-08 23:37:00,
2013-03-08 15:40:00,56.0,46.4,29.88,WSW,253,10.0,15.0,70,0.00,,,0.00,Wunderground v.1.15,2013-03-08 23:40:00,
2013-03-08 15:42:00,56.1,46.4,29.89,West,276,11.0,15.0,70,0.00,,,0.00,Wunderground v.1.15,2013-03-08 23:42:00,
2013-03-08 15:45:00,56.2,46.2,29.88,West,272,14.0,20.0,69,0.00,,,0.00,Wunderground v.1.15,2013-03-08 23:45:00,
2013-03-08 15:47:00,56.1,46.4,29.88,WSW,253,11.0,20.0,70,0.00,,,0.00,Wunderground v.1.15,2013-03-08 23:47:00,
2013-03-08 15:50:00,56.1,46.4,29.89,WSW,240,10.0,12.0,70,0.00,,,0.00,Wunderground v.1.15,2013-03-08 23:50:00,
2013-03-08 15:52:00,56.4,46.7,29.88,West,281,11.0,13.0,70,0.00,,,0.00,Wunderground v.1.15,2013-03-08 23:52:00,
2013-03-08 15:55:00,56.2,46.2,29.88,West,267,5.0,21.0,69,0.00,,,0.00,Wunderground v.1.15,2013-03-08 23:55:00,
2013-03-08 15:57:00,56.3,46.3,29.88,West,269,11.0,21.0,69,0.00,,,0.00,Wunderground v.1.15,2013-03-08 23:57:00,
2013-03-08 16:00:00,56.1,46.1,29.89,WSW,253,22.0,22.0,69,0.00,,,0.00,Wunderground v.1.15,2013-03-09 00:00:00,
2013-03-08 16:01:00,56.0,46.0,29.88,WSW,258,21.0,26.0,69,0.00,,,0.00,Wunderground v.1.15,2013-03-09 00:01:00,
2013-03-08 16:02:00,55.8,45.8,29.89,WSW,250,15.0,26.0,69,0.00,,,0.00,Wunderground v.1.15,2013-03-09 00:02:00,
2013-03-08 16:05:00,55.7,46.1,29.89,WSW,249,15.0,26.0,70,0.00,,,0.00,Wunderground v.1.15,2013-03-09 00:05:00,
2013-03-08 16:06:00,55.7,46.1,29.89,West,274,15.0,26.0,70,0.00,,,0.00,Wunderground v.1.15,2013-03-09 00:06:00,
2013-03-08 16:07:00,55.8,46.2,29.89,WSW,246,13.0,26.0,70,0.00,,,0.00,Wunderground v.1.15,2013-03-09 00:07:00,
2013-03-08 16:08:00,55.8,45.8,29.89,WSW,258,19.0,26.0,69,0.00,,,0.00,Wunderground v.1.15,2013-03-09 00:08:00,
2013-03-08 16:10:00,55.7,45.7,29.89,West,260,19.0,21.0,69,0.00,,,0.00,Wunderground v.1.15,2013-03-09 00:10:00,
2013-03-08 16:11:00,55.7,45.7,29.89,West,261,17.0,22.0,69,0.00,,,0.00,Wunderground v.1.15,2013-03-09 00:11:00,
2013-03-08 16:12:00,55.7,45.7,29.89,West,260,12.0,22.0,69,0.00,,,0.00,Wunderground v.1.15,2013-03-09 00:12:00,
2013-03-08 16:13:00,55.8,46.2,29.89,WSW,241,9.0,22.0,70,0.00,,,0.00,Wunderground v.1.15,2013-03-09 00:13:00,
2013-03-08 16:15:00,55.8,46.2,29.88,WSW,242,15.0,22.0,70,0.00,,,0.00,Wunderground v.1.15,2013-03-09 00:15:00,
2013-03-08 16:16:00,55.8,46.2,29.88,SW,233,13.0,22.0,70,0.00,,,0.00,Wunderground v.1.15,2013-03-09 00:16:00,
2013-03-08 16:17:00,55.8,46.2,29.89,WSW,246,9.0,22.0,70,0.00,,,0.00,Wunderground v.1.15,2013-03-09 00:17:00,
2013-03-08 16:18:00,55.8,46.2,29.89,WSW,247,7.0,22.0,70,0.00,,,0.00,Wunderground v.1.15,2013-03-09 00:18:00,
2013-03-08 16:20:00,55.7,46.1,29.89,WSW,247,9.0,18.0,70,0.00,,,0.00,Wunderground v.1.15,2013-03-09 00:20:00,
2013-03-08 16:21:00,55.7,46.4,29.89,West,262,9.0,18.0,71,0.00,,,0.00,Wunderground v.1.15,2013-03-09 00:21:00,
2013-03-08 16:23:00,55.7,46.1,29.89,WSW,240,6.0,18.0,70,0.00,,,0.00,Wunderground v.1.15,2013-03-09 00:23:00,
2013-03-08 16:26:00,55.6,46.7,29.89,SW,228,10.0,18.0,72,0.00,,,0.00,Wunderground v.1.15,2013-03-09 00:26:00,
2013-03-08 16:27:00,55.6,46.3,29.89,SW,228,8.0,18.0,71,0.00,,,0.00,Wunderground v.1.15,2013-03-09 00:27:00,
2013-03-08 16:28:00,55.5,46.2,29.89,WSW,239,7.0,18.0,71,0.00,,,0.00,Wunderground v.1.15,2013-03-09 00:28:00,
2013-03-08 16:31:00,55.5,46.2,29.89,WSW,245,12.0,18.0,71,0.00,,,0.00,Wunderground v.1.15,2013-03-09 00:31:00,
2013-03-08 16:32:00,55.4,46.2,29.89,WSW,239,14.0,18.0,71,0.00,,,0.00,Wunderground v.1.15,2013-03-09 00:32:00,
2013-03-08 16:33:00,55.4,46.2,29.89,West,259,15.0,18.0,71,0.00,,,0.00,Wunderground v.1.15,2013-03-09 00:33:00,
2013-03-08 16:36:00,55.2,46.0,29.89,WSW,245,10.0,18.0,71,0.00,,,0.00,Wunderground v.1.15,2013-03-09 00:36:00,
2013-03-08 16:37:00,55.1,45.9,29.89,West,266,10.0,18.0,71,0.00,,,0.00,Wunderground v.1.15,2013-03-09 00:37:00,
2013-03-08 16:38:00,55.1,45.9,29.89,West,267,10.0,18.0,71,0.00,,,0.00,Wunderground v.1.15,2013-03-09 00:38:00,
2013-03-08 16:41:00,55.1,45.9,29.89,WSW,246,16.0,19.0,71,0.00,,,0.00,Wunderground v.1.15,2013-03-09 00:41:00,
2013-03-08 16:43:00,54.9,45.7,29.89,SW,233,13.0,19.0,71,0.00,,,0.00,Wunderground v.1.15,2013-03-09 00:43:00,
2013-03-08 16:46:00,54.9,46.0,29.89,West,260,9.0,19.0,72,0.00,,,0.00,Wunderground v.1.15,2013-03-09 00:46:00,
2013-03-08 16:48:00,54.9,46.0,29.89,WSW,256,15.0,19.0,72,0.00,,,0.00,Wunderground v.1.15,2013-03-09 00:48:00,
2013-03-08 16:49:00,54.8,45.9,29.89,WSW,237,10.0,19.0,72,0.00,,,0.00,Wunderground v.1.15,2013-03-09 00:49:00,
2013-03-08 16:52:00,54.8,45.9,29.89,WSW,249,17.0,18.0,72,0.00,,,0.00,Wunderground v.1.15,2013-03-09 00:52:00,
2013-03-08 16:53:00,54.6,45.8,29.89,West,265,11.0,18.0,72,0.00,,,0.00,Wunderground v.1.15,2013-03-09 00:53:00,
2013-03-08 16:57:00,54.7,46.2,29.89,WSW,243,8.0,18.0,73,0.00,,,0.00,Wunderground v.1.15,2013-03-09 00:57:00,
2013-03-08 16:58:00,54.7,46.2,29.89,West,262,11.0,18.0,73,0.00,,,0.00,Wunderground v.1.15,2013-03-09 00:58:00,
2013-03-08 16:59:00,54.7,46.2,29.89,WSW,256,13.0,18.0,73,0.00,,,0.00,Wunderground v.1.15,2013-03-09 00:59:00,
2013-03-08 17:02:00,54.7,46.2,29.89,West,264,1.0,12.0,73,0.00,,,0.00,Wunderground v.1.15,2013-03-09 01:02:00,
2013-03-08 17:03:00,54.7,46.2,29.89,West,265,14.0,15.0,73,0.00,,,0.00,Wunderground v.1.15,2013-03-09 01:03:00,
2013-03-08 17:04:00,54.6,45.8,29.89,WSW,247,6.0,20.0,72,0.00,,,0.00,Wunderground v.1.15,2013-03-09 01:04:00,
2013-03-08 17:07:00,54.3,45.8,29.89,WSW,247,18.0,20.0,73,0.00,,,0.00,Wunderground v.1.15,2013-03-09 01:07:00,
2013-03-08 17:08:00,54.3,45.8,29.89,WSW,243,9.0,20.0,73,0.00,,,0.00,Wunderground v.1.15,2013-03-09 01:08:00,
2013-03-08 17:09:00,54.2,45.7,29.89,West,264,9.0,20.0,73,0.00,,,0.00,Wunderground v.1.15,2013-03-09 01:09:00,
2013-03-08 17:12:00,54.1,46.0,29.89,SW,234,14.0,14.0,74,0.00,,,0.00,Wunderground v.1.15,2013-03-09 01:12:00,
2013-03-08 17:13:00,54.1,46.0,29.89,WSW,245,14.0,14.0,74,0.00,,,0.00,Wunderground v.1.15,2013-03-09 01:13:00,
2013-03-08 17:14:00,54.1,46.0,29.89,West,272,11.0,14.0,74,0.00,,,0.00,Wunderground v.1.15,2013-03-09 01:14:00,
2013-03-08 17:15:00,54.1,46.0,29.89,WSW,255,12.0,14.0,74,0.00,,,0.00,Wunderground v.1.15,2013-03-09 01:15:00,
2013-03-08 17:17:00,54.0,45.9,29.89,West,268,5.0,16.0,74,0.00,,,0.00,Wunderground v.1.15,2013-03-09 01:17:00,
2013-03-08 17:18:00,54.0,45.9,29.89,West,260,13.0,16.0,74,0.00,,,0.00,Wunderground v.1.15,2013-03-09 01:18:00,
2013-03-08 17:19:00,53.9,45.8,29.90,WSW,242,10.0,16.0,74,0.00,,,0.00,Wunderground v.1.15,2013-03-09 01:19:00,
2013-03-08 17:20:00,53.8,45.7,29.90,West,266,13.0,13.0,74,0.00,,,0.00,Wunderground v.1.15,2013-03-09 01:20:00,
2013-03-08 17:22:00,53.5,45.4,29.90,WSW,241,9.0,19.0,74,0.00,,,0.00,Wunderground v.1.15,2013-03-09 01:22:00,
2013-03-08 17:23:00,53.5,45.8,29.90,WSW,248,12.0,19.0,75,0.00,,,0.00,Wunderground v.1.15,2013-03-09 01:23:00,
2013-03-08 17:24:00,53.4,45.7,29.90,WSW,251,17.0,19.0,75,0.00,,,0.00,Wunderground v.1.15,2013-03-09 01:24:00,
2013-03-08 17:25:00,53.4,45.7,29.90,WSW,245,12.0,19.0,75,0.00,,,0.00,Wunderground v.1.15,2013-03-09 01:25:00,
2013-03-08 17:28:00,53.2,45.5,29.90,West,266,15.0,19.0,75,0.00,,,0.00,Wunderground v.1.15,2013-03-09 01:28:00,
2013-03-08 17:29:00,53.1,45.4,29.90,WSW,256,13.0,19.0,75,0.00,,,0.00,Wunderground v.1.15,2013-03-09 01:29:00,
2013-03-08 17:30:00,53.1,45.4,29.90,WSW,255,11.0,12.0,75,0.00,,,0.00,Wunderground v.1.15,2013-03-09 01:30:00,
2013-03-08 17:33:00,53.0,45.6,29.90,WSW,247,8.0,16.0,76,0.00,,,0.00,Wunderground v.1.15,2013-03-09 01:33:00,
2013-03-08 17:34:00,53.0,45.6,29.91,West,262,11.0,16.0,76,0.00,,,0.00,Wunderground v.1.15,2013-03-09 01:34:00,
2013-03-08 17:35:00,53.0,45.6,29.91,WSW,243,9.0,16.0,76,0.00,,,0.00,Wunderground v.1.15,2013-03-09 01:35:00,
2013-03-08 17:38:00,52.9,45.5,29.91,West,272,6.0,16.0,76,0.00,,,0.00,Wunderground v.1.15,2013-03-09 01:38:00,
2013-03-08 17:40:00,52.8,45.4,29.91,WNW,293,8.0,9.0,76,0.00,,,0.00,Wunderground v.1.15,2013-03-09 01:40:00,
2013-03-08 17:43:00,52.7,45.7,29.91,West,266,6.0,13.0,77,0.00,,,0.00,Wunderground v.1.15,2013-03-09 01:43:00,
2013-03-08 17:45:00,52.6,45.6,29.91,West,262,6.0,13.0,77,0.00,,,0.00,Wunderground v.1.15,2013-03-09 01:45:00,
2013-03-08 17:48:00,52.5,45.5,29.91,West,269,7.0,13.0,77,0.00,,,0.00,Wunderground v.1.15,2013-03-09 01:48:00,
2013-03-08 17:50:00,52.4,45.4,29.91,WSW,239,6.0,11.0,77,0.00,,,0.00,Wunderground v.1.15,2013-03-09 01:50:00,
2013-03-08 17:53:00,52.3,45.6,29.92,WSW,246,7.0,11.0,78,0.00,,,0.00,Wunderground v.1.15,2013-03-09 01:53:00,
2013-03-08 17:55:00,52.2,45.5,29.92,West,270,3.0,11.0,78,0.00,,,0.00,Wunderground v.1.15,2013-03-09 01:55:00,
2013-03-08 17:58:00,52.0,45.4,29.92,West,271,10.0,12.0,78,0.00,,,0.00,Wunderground v.1.15,2013-03-09 01:58:00,
2013-03-08 18:00:00,51.9,45.3,29.92,West,259,8.0,8.0,78,0.00,,,0.00,Wunderground v.1.15,2013-03-09 02:00:00,
2013-03-08 18:04:00,51.7,45.1,29.92,WSW,249,9.0,12.0,78,0.00,,,0.00,Wunderground v.1.15,2013-03-09 02:04:00,
2013-03-08 18:05:00,51.6,45.3,29.92,WSW,258,9.0,12.0,79,0.00,,,0.00,Wunderground v.1.15,2013-03-09 02:05:00,
2013-03-08 18:09:00,51.5,45.2,29.92,WSW,250,9.0,15.0,79,0.00,,,0.00,Wunderground v.1.15,2013-03-09 02:09:00,
2013-03-08 18:10:00,51.4,45.1,29.92,West,262,14.0,16.0,79,0.00,,,0.00,Wunderground v.1.15,2013-03-09 02:10:00,
2013-03-08 18:11:00,51.4,45.1,29.92,WSW,248,13.0,16.0,79,0.00,,,0.00,Wunderground v.1.15,2013-03-09 02:11:00,
2013-03-08 18:14:00,51.3,45.0,29.92,West,262,12.0,16.0,79,0.00,,,0.00,Wunderground v.1.15,2013-03-09 02:14:00,
2013-03-08 18:15:00,51.3,45.0,29.93,WSW,251,5.0,16.0,79,0.00,,,0.00,Wunderground v.1.15,2013-03-09 02:15:00,
2013-03-08 18:16:00,51.3,45.0,29.93,WSW,250,6.0,16.0,79,0.00,,,0.00,Wunderground v.1.15,2013-03-09 02:16:00,
2013-03-08 18:20:00,51.2,44.9,29.93,WSW,256,6.0,10.0,79,0.00,,,0.00,Wunderground v.1.15,2013-03-09 02:20:00,
2013-03-08 18:21:00,51.2,44.9,29.93,WSW,245,11.0,13.0,79,0.00,,,0.00,Wunderground v.1.15,2013-03-09 02:21:00,
2013-03-08 18:25:00,51.1,44.8,29.93,West,276,10.0,15.0,79,0.00,,,0.00,Wunderground v.1.15,2013-03-09 02:25:00,
2013-03-08 18:26:00,51.1,44.8,29.93,WSW,256,12.0,18.0,79,0.00,,,0.00,Wunderground v.1.15,2013-03-09 02:26:00,
2013-03-08 18:30:00,51.0,44.7,29.93,West,266,13.0,13.0,79,0.00,,,0.00,Wunderground v.1.15,2013-03-09 02:30:00,
2013-03-08 18:31:00,51.0,44.7,29.93,WSW,257,11.0,14.0,79,0.00,,,0.00,Wunderground v.1.15,2013-03-09 02:31:00,
2013-03-08 18:32:00,51.0,44.7,29.94,WSW,243,8.0,14.0,79,0.00,,,0.00,Wunderground v.1.15,2013-03-09 02:32:00,
2013-03-08 18:35:00,50.8,44.5,29.94,WSW,257,8.0,16.0,79,0.00,,,0.00,Wunderground v.1.15,2013-03-09 02:35:00,
2013-03-08 18:36:00,50.8,44.5,29.94,WSW,253,11.0,16.0,79,0.00,,,0.00,Wunderground v.1.15,2013-03-09 02:36:00,
2013-03-08 18:37:00,50.8,44.9,29.94,West,262,7.0,16.0,80,0.00,,,0.00,Wunderground v.1.15,2013-03-09 02:37:00,
2013-03-08 18:40:00,50.7,44.8,29.94,West,263,10.0,13.0,80,0.00,,,0.00,Wunderground v.1.15,2013-03-09 02:40:00,
2013-03-08 18:41:00,50.7,44.8,29.94,WSW,254,10.0,13.0,80,0.00,,,0.00,Wunderground v.1.15,2013-03-09 02:41:00,
2013-03-08 18:42:00,50.6,44.7,29.94,WSW,248,10.0,13.0,80,0.00,,,0.00,Wunderground v.1.15,2013-03-09 02:42:00,
2013-03-08 18:45:00,50.6,44.7,29.94,West,264,5.0,17.0,80,0.00,,,0.00,Wunderground v.1.15,2013-03-09 02:45:00,
2013-03-08 18:46:00,50.6,44.7,29.94,West,266,5.0,17.0,80,0.00,,,0.00,Wunderground v.1.15,2013-03-09 02:46:00,
2013-03-08 18:47:00,50.5,44.6,29.94,WSW,247,8.0,17.0,80,0.00,,,0.00,Wunderground v.1.15,2013-03-09 02:47:00,
2013-03-08 18:51:00,50.4,44.5,29.95,West,275,12.0,15.0,80,0.00,,,0.00,Wunderground v.1.15,2013-03-09 02:51:00,
2013-03-08 18:52:00,50.3,44.4,29.95,West,266,15.0,15.0,80,0.00,,,0.00,Wunderground v.1.15,2013-03-09 02:52:00,
2013-03-08 18:56:00,50.2,44.3,29.95,West,276,9.0,16.0,80,0.00,,,0.00,Wunderground v.1.15,2013-03-09 02:56:00,
2013-03-08 18:57:00,50.1,44.2,29.95,West,270,12.0,16.0,80,0.00,,,0.00,Wunderground v.1.15,2013-03-09 02:57:00,
2013-03-08 18:58:00,50.1,44.5,29.95,West,265,10.0,16.0,81,0.00,,,0.00,Wunderground v.1.15,2013-03-09 02:58:00,
2013-03-08 19:01:00,49.9,44.3,29.95,WSW,252,12.0,13.0,81,0.00,,,0.00,Wunderground v.1.15,2013-03-09 03:01:00,
2013-03-08 19:02:00,49.8,44.2,29.95,West,268,12.0,17.0,81,0.00,,,0.00,Wunderground v.1.15,2013-03-09 03:02:00,
2013-03-08 19:03:00,49.7,44.1,29.95,WSW,249,9.0,17.0,81,0.00,,,0.00,Wunderground v.1.15,2013-03-09 03:03:00,
2013-03-08 19:06:00,49.6,44.3,29.95,West,264,8.0,17.0,82,0.00,,,0.00,Wunderground v.1.15,2013-03-09 03:06:00,
2013-03-08 19:07:00,49.5,44.2,29.95,West,260,7.0,17.0,82,0.00,,,0.00,Wunderground v.1.15,2013-03-09 03:07:00,
2013-03-08 19:08:00,49.5,44.2,29.95,WSW,251,14.0,17.0,82,0.00,,,0.00,Wunderground v.1.15,2013-03-09 03:08:00,
2013-03-08 19:11:00,49.4,44.1,29.95,WSW,241,11.0,11.0,82,0.00,,,0.00,Wunderground v.1.15,2013-03-09 03:11:00,
2013-03-08 19:12:00,49.3,44.0,29.95,West,267,6.0,13.0,82,0.00,,,0.00,Wunderground v.1.15,2013-03-09 03:12:00,
2013-03-08 19:13:00,49.3,44.0,29.95,West,265,7.0,13.0,82,0.00,,,0.00,Wunderground v.1.15,2013-03-09 03:13:00,
2013-03-08 19:16:00,49.2,44.3,29.95,West,260,9.0,15.0,83,0.00,,,0.00,Wunderground v.1.15,2013-03-09 03:16:00,
2013-03-08 19:17:00,49.2,44.3,29.96,WSW,254,8.0,15.0,83,0.00,,,0.00,Wunderground v.1.15,2013-03-09 03:17:00,
2013-03-08 19:18:00,49.2,44.3,29.96,WSW,252,9.0,15.0,83,0.00,,,0.00,Wunderground v.1.15,2013-03-09 03:18:00,
2013-03-08 19:22:00,49.0,44.1,29.96,WSW,256,12.0,15.0,83,0.00,,,0.00,Wunderground v.1.15,2013-03-09 03:22:00,
2013-03-08 19:23:00,49.0,44.1,29.96,West,272,8.0,15.0,83,0.00,,,0.00,Wunderground v.1.15,2013-03-09 03:23:00,
2013-03-08 19:27:00,48.8,43.9,29.96,West,264,9.0,16.0,83,0.00,,,0.00,Wunderground v.1.15,2013-03-09 03:27:00,
2013-03-08 19:28:00,48.8,43.9,29.96,West,271,8.0,16.0,83,0.00,,,0.00,Wunderground v.1.15,2013-03-09 03:28:00,
2013-03-08 19:32:00,48.7,44.1,29.97,WSW,251,7.0,14.0,84,0.00,,,0.00,Wunderground v.1.15,2013-03-09 03:32:00,
2013-03-08 19:33:00,48.6,44.0,29.97,WSW,258,6.0,14.0,84,0.00,,,0.00,Wunderground v.1.15,2013-03-09 03:33:00,
2013-03-08 19:34:00,48.6,44.0,29.97,West,265,8.0,14.0,84,0.00,,,0.00,Wunderground v.1.15,2013-03-09 03:34:00,
2013-03-08 19:37:00,48.5,43.9,29.97,West,263,7.0,14.0,84,0.00,,,0.00,Wunderground v.1.15,2013-03-09 03:37:00,
2013-03-08 19:38:00,48.5,43.9,29.97,WSW,258,7.0,14.0,84,0.00,,,0.00,Wunderground v.1.15,2013-03-09 03:38:00,
2013-03-08 19:39:00,48.5,43.9,29.97,West,268,8.0,14.0,84,0.00,,,0.00,Wunderground v.1.15,2013-03-09 03:39:00,
2013-03-08 19:42:00,48.4,43.8,29.97,West,274,6.0,11.0,84,0.00,,,0.00,Wunderground v.1.15,2013-03-09 03:42:00,
2013-03-08 19:43:00,48.4,43.8,29.97,West,275,9.0,11.0,84,0.00,,,0.00,Wunderground v.1.15,2013-03-09 03:43:00,
2013-03-08 19:44:00,48.4,43.8,29.97,West,272,4.0,14.0,84,0.00,,,0.00,Wunderground v.1.15,2013-03-09 03:44:00,
2013-03-08 19:45:00,48.4,43.8,29.97,West,259,7.0,14.0,84,0.00,,,0.00,Wunderground v.1.15,2013-03-09 03:45:00,
2013-03-08 19:47:00,48.3,43.7,29.97,West,274,5.0,14.0,84,0.00,,,0.00,Wunderground v.1.15,2013-03-09 03:47:00,
2013-03-08 19:48:00,48.3,43.7,29.98,WSW,256,11.0,14.0,84,0.00,,,0.00,Wunderground v.1.15,2013-03-09 03:48:00,
2013-03-08 19:50:00,48.3,43.7,29.97,West,261,9.0,9.0,84,0.00,,,0.00,Wunderground v.1.15,2013-03-09 03:50:00,
2013-03-08 19:52:00,48.2,43.6,29.98,West,269,7.0,13.0,84,0.00,,,0.00,Wunderground v.1.15,2013-03-09 03:52:00,
2013-03-08 19:53:00,48.3,43.7,29.98,West,273,7.0,13.0,84,0.00,,,0.00,Wunderground v.1.15,2013-03-09 03:53:00,
2013-03-08 19:55:00,48.2,43.6,29.98,North,359,8.0,13.0,84,0.00,,,0.00,Wunderground v.1.15,2013-03-09 03:55:00,
2013-03-08 19:57:00,48.1,43.5,29.98,West,278,7.0,13.0,84,0.00,,,0.00,Wunderground v.1.15,2013-03-09 03:57:00,
2013-03-08 19:58:00,48.1,43.5,29.98,West,269,6.0,13.0,84,0.00,,,0.00,Wunderground v.1.15,2013-03-09 03:58:00,
2013-03-08 20:00:00,48.1,43.8,29.98,WSW,243,10.0,10.0,85,0.00,,,0.00,Wunderground v.1.15,2013-03-09 04:00:00,
2013-03-08 20:01:00,48.0,43.4,29.98,West,265,5.0,10.0,84,0.00,,,0.00,Wunderground v.1.15,2013-03-09 04:01:00,
2013-03-08 20:02:00,48.0,43.4,29.98,WNW,283,6.0,10.0,84,0.00,,,0.00,Wunderground v.1.15,2013-03-09 04:02:00,
2013-03-08 20:03:00,48.0,43.4,29.98,WNW,287,4.0,10.0,84,0.00,,,0.00,Wunderground v.1.15,2013-03-09 04:03:00,
2013-03-08 20:05:00,48.0,43.4,29.98,West,266,6.0,10.0,84,0.00,,,0.00,Wunderground v.1.15,2013-03-09 04:05:00,
2013-03-08 20:06:00,48.0,43.4,29.98,West,260,6.0,10.0,84,0.00,,,0.00,Wunderground v.1.15,2013-03-09 04:06:00,
2013-03-08 20:08:00,48.0,43.4,29.98,West,263,9.0,10.0,84,0.00,,,0.00,Wunderground v.1.15,2013-03-09 04:08:00,
2013-03-08 20:10:00,48.0,43.4,29.99,WSW,258,7.0,10.0,84,0.00,,,0.00,Wunderground v.1.15,2013-03-09 04:10:00,
2013-03-08 20:11:00,48.0,43.4,29.98,WSW,258,7.0,10.0,84,0.00,,,0.00,Wunderground v.1.15,2013-03-09 04:11:00,
2013-03-08 20:13:00,47.9,43.3,29.99,WNW,283,8.0,12.0,84,0.00,,,0.00,Wunderground v.1.15,2013-03-09 04:13:00,
2013-03-08 20:15:00,47.9,43.3,29.99,West,272,5.0,12.0,84,0.00,,,0.00,Wunderground v.1.15,2013-03-09 04:15:00,
2013-03-08 20:16:00,47.9,43.3,29.99,West,272,4.0,12.0,84,0.00,,,0.00,Wunderground v.1.15,2013-03-09 04:16:00,
2013-03-08 20:19:00,47.8,43.2,29.99,West,262,5.0,12.0,84,0.00,,,0.00,Wunderground v.1.15,2013-03-09 04:19:00,
2013-03-08 20:21:00,47.8,43.5,29.98,West,260,7.0,10.0,85,0.00,,,0.00,Wunderground v.1.15,2013-03-09 04:21:00,
2013-03-08 20:24:00,47.8,43.5,29.99,WSW,249,5.0,10.0,85,0.00,,,0.00,Wunderground v.1.15,2013-03-09 04:24:00,
2013-03-08 20:26:00,47.8,43.2,29.99,WSW,256,5.0,10.0,84,0.00,,,0.00,Wunderground v.1.15,2013-03-09 04:26:00,
2013-03-08 20:29:00,47.7,43.1,29.99,West,262,0.0,10.0,84,0.00,,,0.00,Wunderground v.1.15,2013-03-09 04:29:00,
2013-03-08 20:31:00,47.7,43.1,29.99,West,262,0.0,5.0,84,0.00,,,0.00,Wunderground v.1.15,2013-03-09 04:31:00,
2013-03-08 20:34:00,47.7,43.1,29.99,West,260,4.0,5.0,84,0.00,,,0.00,Wunderground v.1.15,2013-03-09 04:34:00,
2013-03-08 20:36:00,47.6,43.0,30.00,West,260,2.0,5.0,84,0.00,,,0.00,Wunderground v.1.15,2013-03-09 04:36:00,
2013-03-08 20:39:00,47.6,43.0,30.00,West,259,1.0,5.0,84,0.00,,,0.00,Wunderground v.1.15,2013-03-09 04:39:00,
2013-03-08 20:40:00,47.6,43.0,30.00,West,260,0.0,1.0,84,0.00,,,0.00,Wunderground v.1.15,2013-03-09 04:40:00,
2013-03-08 20:41:00,47.6,43.0,30.00,West,260,4.0,5.0,84,0.00,,,0.00,Wunderground v.1.15,2013-03-09 04:41:00,
2013-03-08 20:42:00,47.5,42.9,30.00,West,265,1.0,6.0,84,0.00,,,0.00,Wunderground v.1.15,2013-03-09 04:42:00,
2013-03-08 20:45:00,47.5,42.9,30.00,West,270,5.0,6.0,84,0.00,,,0.00,Wunderground v.1.15,2013-03-09 04:45:00,
2013-03-08 20:46:00,47.5,42.9,30.00,West,259,2.0,7.0,84,0.00,,,0.00,Wunderground v.1.15,2013-03-09 04:46:00,
2013-03-08 20:47:00,47.6,43.0,30.00,West,259,0.0,7.0,84,0.00,,,0.00,Wunderground v.1.15,2013-03-09 04:47:00,
2013-03-08 20:50:00,47.6,42.7,30.00,West,277,0.0,2.0,83,0.00,,,0.00,Wunderground v.1.15,2013-03-09 04:50:00,
2013-03-08 20:51:00,47.6,42.7,30.00,West,276,0.0,3.0,83,0.00,,,0.00,Wunderground v.1.15,2013-03-09 04:51:00,
2013-03-08 20:52:00,47.5,42.6,30.00,West,277,3.0,5.0,83,0.00,,,0.00,Wunderground v.1.15,2013-03-09 04:52:00,
2013-03-08 20:55:00,47.5,42.6,30.01,West,274,1.0,5.0,83,0.00,,,0.00,Wunderground v.1.15,2013-03-09 04:55:00,
2013-03-08 20:56:00,47.4,42.8,30.01,WSW,255,6.0,8.0,84,0.00,,,0.00,Wunderground v.1.15,2013-03-09 04:56:00,
2013-03-08 20:57:00,47.4,42.8,30.01,WSW,241,8.0,8.0,84,0.00,,,0.00,Wunderground v.1.15,2013-03-09 04:57:00,
2013-03-08 21:00:00,47.4,42.8,30.01,West,270,4.0,4.0,84,0.00,,,0.00,Wunderground v.1.15,2013-03-09 05:00:00,
2013-03-08 21:05:00,47.3,42.7,30.01,West,259,2.0,10.0,84,0.00,,,0.00,Wunderground v.1.15,2013-03-09 05:05:00,
2013-03-08 21:10:00,47.3,42.7,30.01,West,260,5.0,5.0,84,0.00,,,0.00,Wunderground v.1.15,2013-03-09 05:10:00,
2013-03-08 21:15:00,47.2,42.6,30.02,WSW,258,2.0,12.0,84,0.00,,,0.00,Wunderground v.1.15,2013-03-09 05:15:00,
2013-03-08 21:20:00,47.0,42.7,30.01,West,278,6.0,6.0,85,0.00,,,0.00,Wunderground v.1.15,2013-03-09 05:20:00,
2013-03-08 21:25:00,47.0,42.7,30.02,WSW,251,5.0,8.0,85,0.00,,,0.00,Wunderground v.1.15,2013-03-09 05:25:00,
2013-03-08 21:30:00,46.8,42.5,30.02,West,261,6.0,9.0,85,0.00,,,0.00,Wunderground v.1.15,2013-03-09 05:30:00,
2013-03-08 21:31:00,46.8,42.5,30.02,West,261,5.0,9.0,85,0.00,,,0.00,Wunderground v.1.15,2013-03-09 05:31:00,
2013-03-08 21:36:00,46.7,42.4,30.02,WSW,256,6.0,10.0,85,0.00,,,0.00,Wunderground v.1.15,2013-03-09 05:36:00,
2013-03-08 21:41:00,46.7,42.4,30.02,West,272,2.0,7.0,85,0.00,,,0.00,Wunderground v.1.15,2013-03-09 05:41:00,
2013-03-08 21:46:00,46.6,42.3,30.03,West,274,1.0,7.0,85,0.00,,,0.00,Wunderground v.1.15,2013-03-09 05:46:00,
2013-03-08 21:51:00,46.4,42.1,30.03,West,274,2.0,3.0,85,0.00,,,0.00,Wunderground v.1.15,2013-03-09 05:51:00,
2013-03-08 21:52:00,46.4,42.1,30.03,West,276,4.0,4.0,85,0.00,,,0.00,Wunderground v.1.15,2013-03-09 05:52:00,
2013-03-08 21:56:00,46.3,42.0,30.03,West,277,3.0,7.0,85,0.00,,,0.00,Wunderground v.1.15,2013-03-09 05:56:00,
2013-03-08 21:57:00,46.3,42.0,30.03,West,280,3.0,7.0,85,0.00,,,0.00,Wunderground v.1.15,2013-03-09 05:57:00,
2013-03-08 22:01:00,46.1,41.8,30.03,WNW,282,5.0,5.0,85,0.00,,,0.00,Wunderground v.1.15,2013-03-09 06:01:00,
2013-03-08 22:02:00,46.1,41.8,30.03,WNW,282,4.0,6.0,85,0.00,,,0.00,Wunderground v.1.15,2013-03-09 06:02:00,
2013-03-08 22:06:00,45.9,41.9,30.03,WNW,283,4.0,8.0,86,0.00,,,0.00,Wunderground v.1.15,2013-03-09 06:06:00,
2013-03-08 22:07:00,45.9,41.9,30.03,WNW,283,2.0,8.0,86,0.00,,,0.00,Wunderground v.1.15,2013-03-09 06:07:00,
2013-03-08 22:11:00,46.0,42.0,30.03,West,276,1.0,5.0,86,0.00,,,0.00,Wunderground v.1.15,2013-03-09 06:11:00,
2013-03-08 22:12:00,46.0,42.0,30.03,West,272,2.0,5.0,86,0.00,,,0.00,Wunderground v.1.15,2013-03-09 06:12:00,
2013-03-08 22:13:00,46.1,42.1,30.03,West,262,5.0,7.0,86,0.00,,,0.00,Wunderground v.1.15,2013-03-09 06:13:00,
2013-03-08 22:16:00,46.1,42.1,30.03,West,269,5.0,7.0,86,0.00,,,0.00,Wunderground v.1.15,2013-03-09 06:16:00,
2013-03-08 22:17:00,46.1,42.1,30.03,West,270,3.0,7.0,86,0.00,,,0.00,Wunderground v.1.15,2013-03-09 06:17:00,
2013-03-08 22:18:00,46.2,42.2,30.03,West,275,2.0,7.0,86,0.00,,,0.00,Wunderground v.1.15,2013-03-09 06:18:00,
2013-03-08 22:22:00,46.3,42.0,30.03,WSW,253,6.0,8.0,85,0.00,,,0.00,Wunderground v.1.15,2013-03-09 06:22:00,
2013-03-08 22:23:00,46.3,42.0,30.03,WSW,253,3.0,8.0,85,0.00,,,0.00,Wunderground v.1.15,2013-03-09 06:23:00,
2013-03-08 22:27:00,46.2,41.9,30.04,West,275,5.0,8.0,85,0.00,,,0.00,Wunderground v.1.15,2013-03-09 06:27:00,
2013-03-08 22:28:00,46.2,41.9,30.04,West,274,3.0,8.0,85,0.00,,,0.00,Wunderground v.1.15,2013-03-09 06:28:00,
2013-03-08 22:32:00,46.1,41.8,30.04,West,271,4.0,8.0,85,0.00,,,0.00,Wunderground v.1.15,2013-03-09 06:32:00,
2013-03-08 22:33:00,46.1,41.8,30.04,West,271,2.0,8.0,85,0.00,,,0.00,Wunderground v.1.15,2013-03-09 06:33:00,
2013-03-08 22:37:00,46.1,41.8,30.04,West,272,5.0,8.0,85,0.00,,,0.00,Wunderground v.1.15,2013-03-09 06:37:00,
2013-03-08 22:38:00,46.1,41.8,30.04,West,272,5.0,8.0,85,0.00,,,0.00,Wunderground v.1.15,2013-03-09 06:38:00,
2013-03-08 22:43:00,46.1,41.8,30.04,West,262,0.0,6.0,85,0.00,,,0.00,Wunderground v.1.15,2013-03-09 06:43:00,
2013-03-08 22:44:00,46.1,41.8,30.04,West,276,4.0,6.0,85,0.00,,,0.00,Wunderground v.1.15,2013-03-09 06:44:00,
2013-03-08 22:48:00,46.2,41.9,30.04,WSW,256,5.0,8.0,85,0.00,,,0.00,Wunderground v.1.15,2013-03-09 06:48:00,
2013-03-08 22:49:00,46.2,41.9,30.04,WSW,257,4.0,8.0,85,0.00,,,0.00,Wunderground v.1.15,2013-03-09 06:49:00,
2013-03-08 22:53:00,46.2,41.9,30.04,West,271,2.0,5.0,85,0.00,,,0.00,Wunderground v.1.15,2013-03-09 06:53:00,
2013-03-08 22:54:00,46.2,41.9,30.04,West,271,4.0,5.0,85,0.00,,,0.00,Wunderground v.1.15,2013-03-09 06:54:00,
2013-03-08 22:58:00,46.2,41.6,30.04,WSW,248,2.0,7.0,84,0.00,,,0.00,Wunderground v.1.15,2013-03-09 06:58:00,
2013-03-08 22:59:00,46.2,41.9,30.04,WSW,248,3.0,7.0,85,0.00,,,0.00,Wunderground v.1.15,2013-03-09 06:59:00,
2013-03-08 23:03:00,46.1,41.5,30.04,WSW,258,3.0,6.0,84,0.00,,,0.00,Wunderground v.1.15,2013-03-09 07:03:00,
2013-03-08 23:04:00,46.1,41.5,30.04,West,262,1.0,6.0,84,0.00,,,0.00,Wunderground v.1.15,2013-03-09 07:04:00,
2013-03-08 23:08:00,45.9,41.3,30.05,West,262,0.0,6.0,84,0.00,,,0.00,Wunderground v.1.15,2013-03-09 07:08:00,
2013-03-08 23:09:00,45.9,41.3,30.05,West,262,0.0,6.0,84,0.00,,,0.00,Wunderground v.1.15,2013-03-09 07:09:00,
2013-03-08 23:13:00,45.7,41.1,30.05,West,262,2.0,4.0,84,0.00,,,0.00,Wunderground v.1.15,2013-03-09 07:13:00,
2013-03-08 23:14:00,45.6,41.0,30.05,West,262,0.0,4.0,84,0.00,,,0.00,Wunderground v.1.15,2013-03-09 07:14:00,
2013-03-08 23:15:00,45.6,41.4,30.04,West,262,0.0,4.0,85,0.00,,,0.00,Wunderground v.1.15,2013-03-09 07:15:00,
2013-03-08 23:18:00,45.5,41.3,30.05,West,262,0.0,4.0,85,0.00,,,0.00,Wunderground v.1.15,2013-03-09 07:18:00,
2013-03-08 23:19:00,45.4,41.2,30.05,West,262,0.0,4.0,85,0.00,,,0.00,Wunderground v.1.15,2013-03-09 07:19:00,
2013-03-08 23:20:00,45.4,41.2,30.05,West,262,3.0,3.0,85,0.00,,,0.00,Wunderground v.1.15,2013-03-09 07:20:00,
2013-03-08 23:24:00,45.3,41.1,30.05,West,262,0.0,3.0,85,0.00,,,0.00,Wunderground v.1.15,2013-03-09 07:24:00,
2013-03-08 23:25:00,45.2,41.0,30.05,West,262,2.0,3.0,85,0.00,,,0.00,Wunderground v.1.15,2013-03-09 07:25:00,
2013-03-08 23:29:00,45.1,40.9,30.05,West,262,1.0,4.0,85,0.00,,,0.00,Wunderground v.1.15,2013-03-09 07:29:00,
2013-03-08 23:30:00,45.1,40.9,30.05,West,262,0.0,1.0,85,0.00,,,0.00,Wunderground v.1.15,2013-03-09 07:30:00,
2013-03-08 23:34:00,44.9,40.7,30.05,West,262,0.0,3.0,85,0.00,,,0.00,Wunderground v.1.15,2013-03-09 07:34:00,
2013-03-08 23:35:00,44.9,40.7,30.05,West,262,0.0,3.0,85,0.00,,,0.00,Wunderground v.1.15,2013-03-09 07:35:00,
2013-03-08 23:39:00,44.7,40.8,30.05,West,262,0.0,3.0,86,0.00,,,0.00,Wunderground v.1.15,2013-03-09 07:39:00,
2013-03-08 23:40:00,44.7,40.8,30.05,West,262,0.0,1.0,86,0.00,,,0.00,Wunderground v.1.15,2013-03-09 07:40:00,
2013-03-08 23:44:00,44.6,40.7,30.05,West,263,2.0,4.0,86,0.00,,,0.00,Wunderground v.1.15,2013-03-09 07:44:00,
2013-03-08 23:46:00,44.5,40.6,30.05,West,263,2.0,4.0,86,0.00,,,0.00,Wunderground v.1.15,2013-03-09 07:46:00,
2013-03-08 23:49:00,44.5,40.6,30.05,West,263,2.0,4.0,86,0.00,,,0.00,Wunderground v.1.15,2013-03-09 07:49:00,
2013-03-08 23:51:00,44.5,40.6,30.05,West,263,2.0,3.0,86,0.00,,,0.00,Wunderground v.1.15,2013-03-09 07:51:00,
2013-03-08 23:55:00,44.4,40.5,30.05,West,262,3.0,4.0,86,0.00,,,0.00,Wunderground v.1.15,2013-03-09 07:55:00,
2013-03-08 23:56:00,44.5,40.9,30.05,West,262,3.0,4.0,87,0.00,,,0.00,Wunderground v.1.15,2013-03-09 07:56:00,